M I D A S
Marine Information and Data Acquisition System
Tripno 1904 of the Zeeleeuw from 2010-06-22 06:24:34 to 2010-06-22 16:58:46
Back to CruiseResearch ActivitiesStationsMapUnderway DataData graphs

EquipmentUnitsComment
TimeDGPSUTC
LatitudeDGPSDM.mWGS84
LongitudeDGPSDM.mWGS84
TemperatureSBE03/SBE38deg celciusITS90
ConductivitySBE21S/mITS90
SalinitySBE21 Practical Salinity Units
ChlorophylAChelsea fluorimeterg/lCalibrated in Aceton
Missing or incorrect values are displayed as -999
Sea surface data collected by the RV Zeeleeuw from 2010-06-22 06:13:07 to 2010-06-22 17:06:19
                                                                                    Next 1000 lines
Time Latitude Longitude Temperature Conductivity Salinity ChlorophylA
2010-06-22 06:13:17 51°13.661 2°55.959 19.1664 0.068075 0.372282 -1.035392
2010-06-22 06:13:22 51°13.662 2°55.957 19.119 0.068075 0.372294 -1.000568
2010-06-22 06:13:27 51°13.662 2°55.955 19.1764 0.068075 0.372288 -1.035392
2010-06-22 06:13:32 51°13.663 2°55.952 19.1598 0.068075 0.372288 -1.035392
2010-06-22 06:13:37 51°13.664 2°55.948 19.179 0.068075 0.3723 -1.035392
2010-06-22 06:13:42 51°13.665 2°55.944 19.174 0.068075 0.3723 -1.000568
2010-06-22 06:13:48 51°13.666 2°55.938 19.1741 0.068075 0.372306 -1.035392
2010-06-22 06:13:53 51°13.668 2°55.933 19.1711 0.068075 0.372306 -1.035392
2010-06-22 06:13:59 51°13.669 2°55.926 19.187 0.068075 0.3723 -1.000568
2010-06-22 06:14:05 51°13.671 2°55.919 19.188 0.068075 0.3723 -1.000568
2010-06-22 06:14:10 51°13.672 2°55.913 19.1967 0.068075 0.372306 -1.035392
2010-06-22 06:14:15 51°13.673 2°55.906 19.1996 0.068075 0.372306 -1.000568
2010-06-22 06:14:20 51°13.674 2°55.898 19.1943 0.068075 0.372312 -1.000568
2010-06-22 06:14:25 51°13.675 2°55.891 19.1941 0.068075 0.372318 -1.000568
2010-06-22 06:14:30 51°13.677 2°55.884 19.196 0.068075 0.372318 -1.035392
2010-06-22 06:14:36 51°13.678 2°55.875 19.1967 0.068075 0.372318 -1.035392
2010-06-22 06:14:40 51°13.679 2°55.869 19.1992 0.068075 0.372318 -1.035392
2010-06-22 06:14:45 51°13.68 2°55.861 19.2012 0.068075 0.37233 -1.000568
2010-06-22 06:14:50 51°13.68 2°55.854 19.2058 0.068075 0.37233 -1.000568
2010-06-22 06:14:56 51°13.682 2°55.845 19.2071 0.068075 0.372336 -1.000568
2010-06-22 06:15:00 51°13.682 2°55.838 19.2159 0.068075 0.372336 -0.965744
2010-06-22 06:15:05 51°13.683 2°55.83 19.2117 0.068075 0.372336 -0.965744
2010-06-22 06:15:10 51°13.684 2°55.823 19.2033 0.068075 0.372342 -1.000568
2010-06-22 06:15:15 51°13.685 2°55.815 19.2001 0.068075 0.372342 -1.000568
2010-06-22 06:15:20 51°13.686 2°55.807 19.1968 0.068075 0.372342 -1.035392
2010-06-22 06:15:25 51°13.687 2°55.8 19.1896 0.068075 0.372348 -1.035392
2010-06-22 06:15:30 51°13.687 2°55.792 19.2016 0.068075 0.372354 -1.000568
2010-06-22 06:15:35 51°13.688 2°55.785 19.1826 0.068075 0.372354 -1.000568
2010-06-22 06:15:41 51°13.689 2°55.776 19.1875 0.068075 0.372354 -1.035392
2010-06-22 06:15:45 51°13.689 2°55.77 19.1899 0.068075 0.372354 -1.000568
2010-06-22 06:15:50 51°13.689 2°55.763 19.1934 0.068075 0.372366 -1.000568
2010-06-22 06:15:55 51°13.689 2°55.756 19.1938 0.068075 0.372366 -1.000568
2010-06-22 06:16:00 51°13.688 2°55.75 19.2146 0.068075 0.372366 -1.000568
2010-06-22 06:16:05 51°13.687 2°55.744 19.2111 0.068075 0.372366 -1.000568
2010-06-22 06:16:10 51°13.686 2°55.74 19.2151 0.068075 0.372372 -1.035392
2010-06-22 06:16:15 51°13.686 2°55.738 19.2384 0.068075 0.372366 -0.965744
2010-06-22 06:16:20 51°13.686 2°55.738 19.2406 0.068075 0.372378 -1.035392
2010-06-22 06:16:25 51°13.686 2°55.739 19.2417 0.068075 0.372372 -1.035392
2010-06-22 06:16:29 51°13.687 2°55.741 19.2426 0.068075 0.372384 -1.000568
2010-06-22 06:16:34 51°13.688 2°55.744 19.2436 0.068075 0.372384 -1.000568
2010-06-22 06:16:39 51°13.69 2°55.747 19.25 0.068075 0.37239 -1.035392
2010-06-22 06:16:43 51°13.692 2°55.75 19.2586 0.068075 0.37239 -1.000568
2010-06-22 06:16:49 51°13.696 2°55.754 19.254 0.068075 0.372396 -1.035392
2010-06-22 06:16:53 51°13.699 2°55.756 19.248 0.068075 0.372402 -1.035392
2010-06-22 06:16:58 51°13.703 2°55.758 19.2447 0.068075 0.372414 -1.000568
2010-06-22 06:17:02 51°13.706 2°55.758 19.2477 0.068075 0.372414 -1.000568
2010-06-22 06:17:07 51°13.71 2°55.759 19.2529 0.068075 0.37242 -1.035392
2010-06-22 06:17:12 51°13.715 2°55.758 19.2449 0.068075 0.37242 -1.000568
2010-06-22 06:17:17 51°13.719 2°55.756 19.2513 0.068075 0.372427 -1.035392
2010-06-22 06:17:22 51°13.723 2°55.753 19.2456 0.068075 0.372427 -1.000568
2010-06-22 06:17:27 51°13.728 2°55.749 19.2187 0.068075 0.372433 -1.000568
2010-06-22 06:17:32 51°13.732 2°55.744 19.2074 0.068075 0.372433 -1.000568
2010-06-22 06:17:37 51°13.736 2°55.739 19.1446 0.068075 0.372427 -1.035392
2010-06-22 06:17:42 51°13.74 2°55.733 19.1897 0.068075 0.37242 -1.000568
2010-06-22 06:17:47 51°13.744 2°55.727 19.1587 0.068075 0.372414 -1.035392
2010-06-22 06:17:52 51°13.749 2°55.719 19.1626 0.068075 0.372402 -1.000568
2010-06-22 06:17:57 51°13.754 2°55.712 19.1531 0.068075 0.372402 -1.000568
2010-06-22 06:18:02 51°13.759 2°55.704 19.148 0.068075 0.372402 -1.000568
2010-06-22 06:18:07 51°13.765 2°55.697 19.1101 0.068075 0.372396 -1.035392
2010-06-22 06:18:12 51°13.771 2°55.689 19.0972 0.068075 0.372402 -1.000568
2010-06-22 06:18:17 51°13.777 2°55.681 19.087 0.068075 0.372402 -1.035392
2010-06-22 06:18:21 51°13.783 2°55.676 19.0937 0.068075 0.372408 -1.035392
2010-06-22 06:18:27 51°13.791 2°55.667 19.1056 0.068075 0.37242 -1.000568
2010-06-22 06:18:32 51°13.799 2°55.661 19.122 0.068075 0.37242 -1.000568
2010-06-22 06:18:37 51°13.806 2°55.654 19.1252 0.068075 0.372427 -1.035392
2010-06-22 06:18:41 51°13.813 2°55.649 19.1186 0.068075 0.372427 -1.000568
2010-06-22 06:18:47 51°13.823 2°55.641 19.1375 0.068075 0.372433 -1.000568
2010-06-22 06:18:52 51°13.831 2°55.635 19.1406 0.068075 0.372451 -1.000568
2010-06-22 06:18:57 51°13.839 2°55.629 19.1519 0.068075 0.372451 -1.035392
2010-06-22 06:19:01 51°13.845 2°55.624 19.1537 0.068075 0.372451 -1.035392
2010-06-22 06:19:07 51°13.854 2°55.617 19.1621 0.068075 0.372457 -1.000568
2010-06-22 06:19:12 51°13.861 2°55.611 19.1708 0.068075 0.372463 -0.965744
2010-06-22 06:19:17 51°13.868 2°55.606 19.177 0.068075 0.372469 -1.035392
2010-06-22 06:19:22 51°13.875 2°55.601 19.1882 0.068075 0.372475 -1.000568
2010-06-22 06:19:27 51°13.883 2°55.596 19.1912 0.068075 0.372475 -1.035392
2010-06-22 06:19:32 51°13.89 2°55.591 19.1924 0.068075 0.372475 -1.035392
2010-06-22 06:19:37 51°13.897 2°55.586 19.199 0.068075 0.372481 -1.000568
2010-06-22 06:19:41 51°13.903 2°55.582 19.205 0.068075 0.372481 -1.000568
2010-06-22 06:19:47 51°13.912 2°55.576 19.2097 0.068075 0.372487 -1.000568
2010-06-22 06:19:52 51°13.919 2°55.571 19.2168 0.068075 0.372493 -0.965744
2010-06-22 06:19:57 51°13.926 2°55.565 19.2194 0.068075 0.372493 -1.000568
2010-06-22 06:20:02 51°13.933 2°55.56 19.2135 0.068075 0.372493 -1.000568
2010-06-22 06:20:07 51°13.94 2°55.554 19.2103 0.068075 0.372499 -1.035392
2010-06-22 06:20:12 51°13.947 2°55.548 19.2044 0.068075 0.372493 -1.000568
2010-06-22 06:20:17 51°13.953 2°55.543 19.2047 0.068075 0.372493 -1.000568
2010-06-22 06:20:22 51°13.96 2°55.538 19.1932 0.068075 0.372499 -1.000568
2010-06-22 06:20:27 51°13.967 2°55.533 19.1987 0.068075 0.372493 -1.000568
2010-06-22 06:20:32 51°13.973 2°55.528 19.2044 0.068075 0.372493 -1.000568
2010-06-22 06:20:37 51°13.98 2°55.523 19.2065 0.068075 0.372499 -1.035392
2010-06-22 06:20:41 51°13.985 2°55.52 19.2003 0.068075 0.372493 -1.035392
2010-06-22 06:20:47 51°13.993 2°55.514 19.2171 0.068075 0.372511 -1.000568
2010-06-22 06:20:52 51°14 2°55.509 19.2146 0.068075 0.372511 -0.965744
2010-06-22 06:20:57 51°14.007 2°55.505 19.2156 0.068075 0.372517 -1.035392
2010-06-22 06:21:01 51°14.012 2°55.501 19.2194 0.068075 0.372517 -1.035392
2010-06-22 06:21:07 51°14.019 2°55.495 19.221 0.068075 0.372517 -1.000568
2010-06-22 06:21:12 51°14.026 2°55.491 19.2184 0.068075 0.372523 -1.000568
2010-06-22 06:21:17 51°14.032 2°55.486 19.2224 0.068075 0.372523 -1.035392
2010-06-22 06:21:22 51°14.038 2°55.481 19.22 0.068075 0.372529 -1.000568
2010-06-22 06:21:27 51°14.044 2°55.476 19.2158 0.068075 0.372523 -1.000568
2010-06-22 06:21:32 51°14.051 2°55.472 19.2102 0.068075 0.372523 -1.000568
2010-06-22 06:21:37 51°14.057 2°55.467 19.2185 0.068075 0.372529 -1.000568
2010-06-22 06:21:41 51°14.062 2°55.464 19.2181 0.068075 0.372535 -1.000568
2010-06-22 06:21:47 51°14.07 2°55.458 19.2309 0.068075 0.372529 -1.000568
2010-06-22 06:21:52 51°14.076 2°55.454 19.2175 0.068075 0.372535 -1.000568
2010-06-22 06:21:57 51°14.083 2°55.449 19.2159 0.068075 0.372535 -1.000568
2010-06-22 06:22:02 51°14.089 2°55.445 19.2136 0.068075 0.372535 -1.000568
2010-06-22 06:22:07 51°14.095 2°55.44 19.2134 0.068075 0.372541 -1.000568
2010-06-22 06:22:12 51°14.102 2°55.436 19.2192 0.068075 0.372541 -1.035392
2010-06-22 06:22:17 51°14.108 2°55.432 19.2202 0.068075 0.372547 -1.000568
2010-06-22 06:22:22 51°14.114 2°55.427 19.2265 0.068075 0.372547 -1.035392
2010-06-22 06:22:28 51°14.122 2°55.422 19.2251 0.068075 0.372553 -1.035392
2010-06-22 06:22:33 51°14.128 2°55.417 19.227 0.068075 0.372553 -1.035392
2010-06-22 06:22:39 51°14.135 2°55.411 19.2325 0.068075 0.372547 -1.000568
2010-06-22 06:22:45 51°14.144 2°55.405 19.2362 0.068075 0.372547 -1.000568
2010-06-22 06:22:49 51°14.149 2°55.401 19.2525 0.068075 0.372553 -1.000568
2010-06-22 06:22:55 51°14.158 2°55.394 19.2543 0.068075 0.372559 -1.035392
2010-06-22 06:23:00 51°14.166 2°55.387 19.251 0.068075 0.372559 -1.035392
2010-06-22 06:23:04 51°14.172 2°55.381 19.2225 0.068075 0.372559 -1.035392
2010-06-22 06:23:09 51°14.18 2°55.374 19.2101 0.068075 0.372559 -1.000568
2010-06-22 06:23:14 51°14.189 2°55.367 19.2108 0.068075 0.372565 -1.000568
2010-06-22 06:23:19 51°14.198 2°55.359 19.221 0.068075 0.372559 -1.035392
2010-06-22 06:23:23 51°14.205 2°55.352 19.2196 0.068075 0.372565 -0.965744
2010-06-22 06:23:29 51°14.216 2°55.342 19.2338 0.068075 0.372565 -1.035392
2010-06-22 06:23:33 51°14.224 2°55.335 19.2358 0.068075 0.372565 -1.035392
2010-06-22 06:23:37 51°14.231 2°55.328 19.2434 0.068075 0.372571 -1.000568
2010-06-22 06:23:42 51°14.241 2°55.319 19.2538 0.068075 0.372577 -1.000568
2010-06-22 06:23:47 51°14.25 2°55.308 19.2212 0.068075 0.372589 -1.035392
2010-06-22 06:23:52 51°14.26 2°55.296 19.1906 0.068075 0.372589 -1.000568
2010-06-22 06:23:57 51°14.27 2°55.284 19.171 0.068075 0.372583 -1.000568
2010-06-22 06:24:02 51°14.281 2°55.271 19.1796 0.068075 0.372583 -1.000568
2010-06-22 06:24:07 51°14.291 2°55.258 19.1917 0.068075 0.372577 -1.000568
2010-06-22 06:24:12 51°14.302 2°55.245 19.1829 0.068075 0.372583 -1.000568
2010-06-22 06:24:17 51°14.313 2°55.232 19.203 0.068075 0.372589 -1.035392
2010-06-22 06:24:21 51°14.322 2°55.221 19.2031 0.068075 0.372589 -1.000568
2010-06-22 06:24:27 51°14.336 2°55.205 19.184 0.068075 0.372589 -1.000568
2010-06-22 06:24:32 51°14.347 2°55.191 19.1496 0.068075 0.372589 -1.000568
2010-06-22 06:24:37 51°14.359 2°55.178 19.1902 0.068075 0.372589 -1.000568
2010-06-22 06:24:42 51°14.371 2°55.165 19.207 0.068075 0.372595 -1.035392
2010-06-22 06:24:47 51°14.383 2°55.152 19.1982 0.068075 0.372595 -1.035392
2010-06-22 06:24:52 51°14.396 2°55.139 19.1665 0.068075 0.372601 -1.000568
2010-06-22 06:24:57 51°14.409 2°55.126 19.1434 0.068075 0.372607 -1.000568
2010-06-22 06:25:02 51°14.422 2°55.114 19.1933 0.068075 0.372607 -1.000568
2010-06-22 06:25:07 51°14.435 2°55.101 19.2032 0.068075 0.372601 -1.000568
2010-06-22 06:25:12 51°14.449 2°55.089 19.1617 0.068075 0.372601 -1.000568
2010-06-22 06:25:17 51°14.463 2°55.077 19.1494 0.068075 0.372607 -1.000568
2010-06-22 06:25:21 51°14.474 2°55.067 19.1961 0.068075 0.372613 -1.000568
2010-06-22 06:25:27 51°14.491 2°55.052 19.1909 0.068075 0.372613 -0.965744
2010-06-22 06:25:32 51°14.505 2°55.039 19.2292 0.068075 0.372613 -0.965744
2010-06-22 06:25:37 51°14.519 2°55.026 19.2251 0.068075 0.372613 -0.965744
2010-06-22 06:25:41 51°14.529 2°55.014 19.1957 0.068075 0.372613 -1.070216
2010-06-22 06:25:47 51°14.544 2°54.995 19.2401 0.068075 0.372631 -1.035392
2010-06-22 06:25:52 51°14.556 2°54.978 19.2242 0.068075 0.372643 -0.965744
2010-06-22 06:25:57 51°14.567 2°54.959 19.2514 0.068075 0.372643 -1.000568
2010-06-22 06:26:02 51°14.576 2°54.939 19.1486 0.068075 0.372643 -1.000568
2010-06-22 06:26:07 51°14.585 2°54.918 19.2108 0.068075 0.372649 -0.965744
2010-06-22 06:26:12 51°14.593 2°54.897 19.1819 0.068075 0.372649 -1.000568
2010-06-22 06:26:17 51°14.601 2°54.874 19.2223 0.068075 0.372655 -0.965744
2010-06-22 06:26:21 51°14.606 2°54.856 18.9757 0.068075 0.372643 -1.000568
2010-06-22 06:26:27 51°14.613 2°54.828 18.9771 0.068075 0.372649 -1.035392
2010-06-22 06:26:32 51°14.618 2°54.804 19.0607 0.068075 0.372649 -1.035392
2010-06-22 06:26:37 51°14.622 2°54.779 19.1162 0.068075 0.372643 -1.000568
2010-06-22 06:26:42 51°14.625 2°54.754 19.1039 0.068075 0.372649 -1.000568
2010-06-22 06:26:47 51°14.628 2°54.729 19.0934 0.068075 0.372655 -1.000568
2010-06-22 06:26:52 51°14.628 2°54.703 19.0522 0.068075 0.372655 -1.000568
2010-06-22 06:26:57 51°14.628 2°54.677 19.0849 0.068075 0.372667 -0.965744
2010-06-22 06:27:02 51°14.626 2°54.651 19.0774 0.068075 0.372667 -0.965744
2010-06-22 06:27:07 51°14.625 2°54.625 19.0871 0.068075 0.372673 -1.000568
2010-06-22 06:27:12 51°14.625 2°54.599 19.0773 0.068075 0.372637 -1.035392
2010-06-22 06:27:17 51°14.622 2°54.573 19.0896 0.068075 0.372655 -1.000568
2010-06-22 06:27:22 51°14.621 2°54.546 19.0784 0.068075 0.372631 -1.035392
2010-06-22 06:27:27 51°14.617 2°54.52 19.094 0.068075 0.372655 -1.000568
2010-06-22 06:27:32 51°14.615 2°54.493 19.0916 0.068075 0.372655 -1.000568
2010-06-22 06:27:37 51°14.61 2°54.467 19.0941 0.068075 0.372643 -0.965744
2010-06-22 06:27:41 51°14.607 2°54.445 19.091 0.068075 0.372661 -1.000568
2010-06-22 06:27:47 51°14.601 2°54.414 19.1001 0.068075 0.372667 -1.000568
2010-06-22 06:27:52 51°14.596 2°54.387 19.0854 0.068075 0.372655 -1.000568
2010-06-22 06:27:57 51°14.589 2°54.362 19.0987 0.068075 0.372661 -1.000568
2010-06-22 06:28:02 51°14.583 2°54.336 19.1019 0.068075 0.372661 -1.000568
2010-06-22 06:28:07 51°14.575 2°54.311 19.1063 0.068075 0.372661 -1.000568
2010-06-22 06:28:12 51°14.568 2°54.286 19.1034 0.068075 0.372649 -1.000568
2010-06-22 06:28:17 51°14.56 2°54.261 19.1004 0.068075 0.372649 -1.000568
2010-06-22 06:28:21 51°14.553 2°54.242 19.1006 0.068075 0.372655 -1.000568
2010-06-22 06:28:27 51°14.543 2°54.213 19.1087 0.068075 0.372655 -1.000568
2010-06-22 06:28:32 51°14.534 2°54.189 19.0899 0.068075 0.372655 -1.000568
2010-06-22 06:28:37 51°14.524 2°54.167 19.1194 0.068075 0.372667 -1.000568
2010-06-22 06:28:42 51°14.516 2°54.142 19.0928 0.068075 0.372649 -1.035392
2010-06-22 06:28:47 51°14.505 2°54.12 19.1168 0.068075 0.372679 -1.000568
2010-06-22 06:28:52 51°14.496 2°54.097 19.0963 0.068075 0.372673 -1.000568
2010-06-22 06:28:57 51°14.485 2°54.075 19.1179 0.068075 0.372679 -1.035392
2010-06-22 06:29:02 51°14.476 2°54.052 19.1003 0.068075 0.372679 -1.035392
2010-06-22 06:29:07 51°14.464 2°54.031 19.1147 0.068075 0.372691 -1.035392
2010-06-22 06:29:12 51°14.454 2°54.008 19.1027 0.068075 0.372667 -1.000568
2010-06-22 06:29:17 51°14.443 2°53.987 19.1191 0.068075 0.372691 -1.000568
2010-06-22 06:29:22 51°14.433 2°53.965 19.106 0.068075 0.372673 -1.000568
2010-06-22 06:29:27 51°14.421 2°53.943 19.1192 0.068075 0.372679 -1.000568
2010-06-22 06:29:32 51°14.411 2°53.921 19.1143 0.068075 0.372679 -1.000568
2010-06-22 06:29:37 51°14.4 2°53.9 19.1151 0.068075 0.372673 -1.000568
2010-06-22 06:29:41 51°14.391 2°53.882 19.1225 0.068075 0.372673 -1.000568
2010-06-22 06:29:47 51°14.379 2°53.855 19.1128 0.068075 0.372673 -1.000568
2010-06-22 06:29:52 51°14.367 2°53.833 19.1252 0.068075 0.372691 -1.000568
2010-06-22 06:29:57 51°14.357 2°53.811 19.1159 0.068075 0.372679 -1.000568
2010-06-22 06:30:01 51°14.348 2°53.793 19.1277 0.068075 0.372679 -1.000568
2010-06-22 06:30:07 51°14.336 2°53.766 19.117 0.068075 0.372685 -1.035392
2010-06-22 06:30:12 51°14.325 2°53.744 19.1272 0.068075 0.372703 -0.965744
2010-06-22 06:30:17 51°14.314 2°53.722 19.1266 0.068075 0.372685 -0.965744
2010-06-22 06:30:21 51°14.306 2°53.704 19.1255 0.068075 0.372697 -1.035392
2010-06-22 06:30:27 51°14.293 2°53.677 19.1229 0.068075 0.372703 -0.965744
2010-06-22 06:30:32 51°14.283 2°53.655 19.1299 0.068075 0.372703 -0.965744
2010-06-22 06:30:37 51°14.272 2°53.632 19.1301 0.068075 0.372697 -1.000568
2010-06-22 06:30:42 51°14.262 2°53.61 19.1355 0.068075 0.372697 -0.965744
2010-06-22 06:30:47 51°14.251 2°53.587 19.1347 0.068075 0.372697 -0.965744
2010-06-22 06:30:52 51°14.241 2°53.564 19.1267 0.068075 0.372697 -1.000568
2010-06-22 06:30:57 51°14.231 2°53.542 19.1384 0.068075 0.372715 -1.000568
2010-06-22 06:31:01 51°14.223 2°53.523 19.1217 0.068075 0.372715 -1.000568
2010-06-22 06:31:07 51°14.209 2°53.497 19.135 0.068075 0.372703 -1.000568
2010-06-22 06:31:12 51°14.2 2°53.473 19.1366 0.068075 0.372715 -0.965744
2010-06-22 06:31:17 51°14.189 2°53.452 19.1421 0.068075 0.372727 -1.000568
2010-06-22 06:31:22 51°14.179 2°53.429 19.1408 0.068075 0.372721 -1.000568
2010-06-22 06:31:27 51°14.168 2°53.406 19.1439 0.068075 0.372727 -1.000568
2010-06-22 06:31:32 51°14.158 2°53.383 19.1374 0.068075 0.372727 -1.000568
2010-06-22 06:31:37 51°14.147 2°53.361 19.1471 0.068075 0.372727 -1.035392
2010-06-22 06:31:41 51°14.139 2°53.342 19.1334 0.068075 0.372721 -1.000568
2010-06-22 06:31:47 51°14.126 2°53.316 19.1443 0.068075 0.372727 -1.000568
2010-06-22 06:31:52 51°14.116 2°53.292 19.1454 0.068075 0.372727 -0.965744
2010-06-22 06:31:57 51°14.106 2°53.27 19.1558 0.068075 0.372733 -0.965744
2010-06-22 06:32:01 51°14.098 2°53.252 19.1321 0.068075 0.372733 -0.965744
2010-06-22 06:32:07 51°14.085 2°53.225 19.157 0.068075 0.372733 -1.000568
2010-06-22 06:32:12 51°14.075 2°53.202 19.1409 0.068075 0.372721 -1.000568
2010-06-22 06:32:17 51°14.064 2°53.18 19.1609 0.068075 0.372751 -1.035392
2010-06-22 06:32:21 51°14.056 2°53.162 19.1349 0.068075 0.372727 -1.000568
2010-06-22 06:32:27 51°14.043 2°53.135 19.1601 0.068075 0.372751 -1.000568
2010-06-22 06:32:32 51°14.034 2°53.112 19.1381 0.068075 0.372751 -1.000568
2010-06-22 06:32:37 51°14.023 2°53.09 19.1626 0.068075 0.372745 -1.035392
2010-06-22 06:32:42 51°14.014 2°53.066 19.1454 0.068075 0.372733 -1.000568
2010-06-22 06:32:47 51°14.003 2°53.045 19.1686 0.068075 0.372769 -1.000568
2010-06-22 06:32:52 51°13.993 2°53.021 19.1491 0.068075 0.372733 -1.000568
2010-06-22 06:32:57 51°13.982 2°52.999 19.1576 0.068075 0.372763 -1.000568
2010-06-22 06:33:01 51°13.975 2°52.981 19.1504 0.068075 0.372763 -1.000568
2010-06-22 06:33:07 51°13.962 2°52.955 19.151 0.068075 0.372745 -1.000568
2010-06-22 06:33:12 51°13.953 2°52.931 19.1692 0.068075 0.372757 -1.000568
2010-06-22 06:33:17 51°13.942 2°52.909 19.1593 0.068075 0.372751 -1.000568
2010-06-22 06:33:22 51°13.932 2°52.887 19.1707 0.068075 0.372769 -1.000568
2010-06-22 06:33:27 51°13.922 2°52.863 19.1731 0.068075 0.372763 -1.000568
2010-06-22 06:33:32 51°13.912 2°52.841 19.1541 0.068075 0.372763 -1.000568
2010-06-22 06:33:37 51°13.902 2°52.819 19.1716 0.068075 0.372757 -1.000568
2010-06-22 06:33:42 51°13.892 2°52.795 19.1667 0.068075 0.372757 -0.965744
2010-06-22 06:33:47 51°13.882 2°52.773 19.1677 0.068075 0.372763 -1.000568
2010-06-22 06:33:52 51°13.872 2°52.751 19.1748 0.068075 0.372763 -1.035392
2010-06-22 06:33:57 51°13.862 2°52.728 19.1712 0.068075 0.372763 -1.000568
2010-06-22 06:34:02 51°13.851 2°52.706 19.1735 0.068075 0.372763 -1.000568
2010-06-22 06:34:07 51°13.841 2°52.683 19.166 0.068075 0.372757 -1.000568
2010-06-22 06:34:12 51°13.831 2°52.661 19.1834 0.068075 0.372763 -1.000568
2010-06-22 06:34:17 51°13.821 2°52.638 19.1341 0.068075 0.372769 -1.035392
2010-06-22 06:34:21 51°13.812 2°52.62 19.2064 0.068075 0.372769 -1.035392
2010-06-22 06:34:27 51°13.8 2°52.593 19.2262 0.068075 0.372775 -1.000568
2010-06-22 06:34:32 51°13.79 2°52.57 19.2158 0.068075 0.372775 -1.000568
2010-06-22 06:34:37 51°13.78 2°52.547 19.2253 0.068075 0.372775 -1.035392
2010-06-22 06:34:42 51°13.77 2°52.525 19.213 0.068075 0.372781 -1.000568
2010-06-22 06:34:47 51°13.76 2°52.502 19.2192 0.068075 0.372775 -1.000568
2010-06-22 06:34:52 51°13.749 2°52.481 19.2121 0.068075 0.372805 -1.000568
2010-06-22 06:34:57 51°13.74 2°52.457 19.217 0.068075 0.372763 -1.000568
2010-06-22 06:35:01 51°13.731 2°52.439 19.2231 0.068075 0.372763 -1.000568
2010-06-22 06:35:07 51°13.719 2°52.412 19.2165 0.068075 0.372805 -1.000568
2010-06-22 06:35:12 51°13.709 2°52.39 19.2263 0.068075 0.372787 -0.965744
2010-06-22 06:35:17 51°13.699 2°52.367 19.2195 0.068075 0.372805 -1.000568
2010-06-22 06:35:22 51°13.689 2°52.344 19.2237 0.068075 0.372805 -1.000568
2010-06-22 06:35:27 51°13.679 2°52.322 19.2234 0.068075 0.372811 -1.000568
2010-06-22 06:35:32 51°13.669 2°52.299 19.2227 0.068075 0.372811 -1.000568
2010-06-22 06:35:37 51°13.659 2°52.277 19.2262 0.068075 0.372793 -1.035392
2010-06-22 06:35:42 51°13.649 2°52.254 19.2257 0.068075 0.372799 -0.965744
2010-06-22 06:35:47 51°13.639 2°52.231 19.2269 0.068075 0.372787 -1.000568
2010-06-22 06:35:52 51°13.629 2°52.209 19.2277 0.068075 0.372793 -1.000568
2010-06-22 06:35:57 51°13.619 2°52.186 19.2288 0.068075 0.372799 -1.000568
2010-06-22 06:36:02 51°13.609 2°52.163 19.2326 0.068075 0.372799 -1.000568
2010-06-22 06:36:07 51°13.599 2°52.141 19.2282 0.068075 0.372817 -1.035392
2010-06-22 06:36:12 51°13.589 2°52.119 18.9385 0.068075 0.372811 -1.000568
2010-06-22 06:36:17 51°13.579 2°52.096 18.855 0.068075 0.372817 -0.93092
2010-06-22 06:36:21 51°13.571 2°52.078 18.8929 0.068075 0.372829 -0.965744
2010-06-22 06:36:27 51°13.559 2°52.051 18.9231 0.068075 0.372823 -1.000568
2010-06-22 06:36:32 51°13.548 2°52.029 18.9206 0.068075 0.372823 -1.000568
2010-06-22 06:36:37 51°13.539 2°52.006 18.9939 0.068075 0.372823 -1.035392
2010-06-22 06:36:41 51°13.53 2°51.989 18.9776 0.068075 0.372829 -1.000568
2010-06-22 06:36:47 51°13.519 2°51.962 19.0013 0.068075 0.372823 -1.035392
2010-06-22 06:36:52 51°13.509 2°51.942 18.9933 0.068075 0.372841 -0.965744
2010-06-22 06:36:57 51°13.501 2°51.922 18.9853 0.068075 0.372829 -1.000568
2010-06-22 06:37:01 51°13.494 2°51.906 18.9925 0.068075 0.372829 -1.000568
2010-06-22 06:37:07 51°13.484 2°51.884 18.984 0.068075 0.372853 -1.000568
2010-06-22 06:37:12 51°13.475 2°51.865 19.0179 0.068075 0.372835 -1.000568
2010-06-22 06:37:17 51°13.467 2°51.847 18.9803 0.068075 0.372841 -1.035392
2010-06-22 06:37:22 51°13.459 2°51.83 19.0178 0.068075 0.372847 -1.035392
2010-06-22 06:37:27 51°13.451 2°51.812 18.99 0.068075 0.372853 -1.000568
2010-06-22 06:37:32 51°13.444 2°51.794 19.0134 0.068075 0.372853 -1.000568
2010-06-22 06:37:37 51°13.436 2°51.777 19.0001 0.068075 0.372853 -1.035392
2010-06-22 06:37:41 51°13.43 2°51.764 19.0407 0.068075 0.372853 -1.000568
2010-06-22 06:37:47 51°13.421 2°51.744 18.9879 0.068075 0.372859 -1.000568
2010-06-22 06:37:52 51°13.414 2°51.726 19.0496 0.068075 0.372853 -1.035392
2010-06-22 06:37:57 51°13.406 2°51.71 18.9991 0.068075 0.372859 -1.000568
2010-06-22 06:38:02 51°13.399 2°51.693 19.0486 0.068075 0.372859 -1.000568
2010-06-22 06:38:07 51°13.391 2°51.676 19.0175 0.068075 0.372871 -1.035392
2010-06-22 06:38:12 51°13.384 2°51.659 19.0576 0.068075 0.372859 -1.000568
2010-06-22 06:38:17 51°13.376 2°51.643 19.0303 0.068075 0.372884 -0.965744
2010-06-22 06:38:22 51°13.37 2°51.626 19.0691 0.068075 0.372877 -1.000568
2010-06-22 06:38:27 51°13.362 2°51.61 19.049 0.068075 0.372884 -1.000568
2010-06-22 06:38:32 51°13.357 2°51.591 19.0991 0.068075 0.372884 -1.000568
2010-06-22 06:38:37 51°13.351 2°51.574 19.0712 0.068075 0.372871 -0.965744
2010-06-22 06:38:41 51°13.35 2°51.559 19.0728 0.068075 0.372871 -1.035392
2010-06-22 06:38:47 51°13.348 2°51.539 19.0611 0.068075 0.372877 -1.000568
2010-06-22 06:38:52 51°13.349 2°51.524 19.0609 0.068075 0.372877 -1.000568
2010-06-22 06:38:57 51°13.351 2°51.51 19.0607 0.068075 0.372896 -1.000568
2010-06-22 06:39:01 51°13.353 2°51.5 19.0635 0.068075 0.372896 -1.000568
2010-06-22 06:39:07 51°13.357 2°51.486 19.0735 0.068075 0.372908 -1.000568
2010-06-22 06:39:12 51°13.361 2°51.476 19.0692 0.068075 0.372914 -1.000568
2010-06-22 06:39:17 51°13.366 2°51.467 19.0623 0.068075 0.37292 -0.965744
2010-06-22 06:39:22 51°13.371 2°51.459 19.0558 0.068075 0.372926 -1.000568
2010-06-22 06:39:27 51°13.377 2°51.452 19.0582 0.068075 0.372932 -1.000568
2010-06-22 06:39:32 51°13.383 2°51.446 19.0526 0.068075 0.372932 -1.000568
2010-06-22 06:39:37 51°13.389 2°51.441 19.0699 0.068075 0.372932 -1.000568
2010-06-22 06:39:41 51°13.394 2°51.437 19.0545 0.068075 0.372944 -1.000568
2010-06-22 06:39:47 51°13.402 2°51.43 19.0575 0.068075 0.372938 -1.000568
2010-06-22 06:39:52 51°13.408 2°51.425 19.0614 0.068075 0.372938 -1.000568
2010-06-22 06:39:57 51°13.415 2°51.42 19.0607 0.068075 0.372944 -1.035392
2010-06-22 06:40:02 51°13.422 2°51.414 19.0698 0.068075 0.372944 -1.035392
2010-06-22 06:40:07 51°13.428 2°51.409 19.0773 0.067971 0.372355 -1.000568
2010-06-22 06:40:12 51°13.435 2°51.404 19.0806 0.068075 0.372944 -1.000568
2010-06-22 06:40:17 51°13.443 2°51.399 19.0751 0.068075 0.372944 -1.000568
2010-06-22 06:40:22 51°13.45 2°51.395 19.0943 0.068075 0.372944 -0.965744
2010-06-22 06:40:27 51°13.458 2°51.392 19.0934 0.068075 0.372938 -1.000568
2010-06-22 06:40:32 51°13.465 2°51.39 19.0928 0.068075 0.372938 -1.000568
2010-06-22 06:40:37 51°13.472 2°51.389 19.0872 0.068075 0.372944 -1.000568
2010-06-22 06:40:41 51°13.477 2°51.389 19.0934 0.068075 0.37295 -1.000568
2010-06-22 06:40:47 51°13.485 2°51.389 19.0903 0.067971 0.372373 -1.000568
2010-06-22 06:40:52 51°13.491 2°51.39 19.0974 0.068075 0.372962 -1.000568
2010-06-22 06:40:57 51°13.496 2°51.391 19.2061 0.068075 0.372956 -1.000568
2010-06-22 06:41:01 51°13.5 2°51.392 19.2274 0.068075 0.372956 -1.000568
2010-06-22 06:41:07 51°13.506 2°51.393 19.2141 0.068075 0.372962 -1.000568
2010-06-22 06:41:12 51°13.511 2°51.395 19.2052 0.068075 0.372956 -1.035392
2010-06-22 06:41:17 51°13.515 2°51.397 19.1998 0.068075 0.372956 -1.000568
2010-06-22 06:41:22 51°13.519 2°51.399 19.1973 0.068075 0.372962 -1.000568
2010-06-22 06:41:27 51°13.522 2°51.401 19.1957 0.068075 0.372968 -1.035392
2010-06-22 06:41:32 51°13.525 2°51.404 19.1939 0.068075 0.372968 -1.035392
2010-06-22 06:41:37 51°13.527 2°51.407 19.1947 0.068075 0.372974 -1.035392
2010-06-22 06:41:41 51°13.528 2°51.408 19.1937 0.067971 0.372385 -1.035392
2010-06-22 06:41:47 51°13.53 2°51.411 19.1932 0.067971 0.372397 -1.035392
2010-06-22 06:41:52 51°13.531 2°51.412 19.1946 0.068075 0.372992 -1.000568
2010-06-22 06:41:57 51°13.531 2°51.414 19.1955 0.068075 0.372986 -1.000568
2010-06-22 06:42:02 51°13.532 2°51.416 19.1964 0.068075 0.372986 -1.000568
2010-06-22 06:42:07 51°13.533 2°51.418 19.1977 0.068075 0.372998 -0.965744
2010-06-22 06:42:12 51°13.534 2°51.42 19.1978 0.068075 0.372986 -1.000568
2010-06-22 06:42:17 51°13.535 2°51.422 19.1996 0.068075 0.372986 -1.000568
2010-06-22 06:42:22 51°13.536 2°51.424 19.201 0.068075 0.372992 -1.000568
2010-06-22 06:42:27 51°13.537 2°51.426 19.2013 0.068075 0.372992 -1.000568
2010-06-22 06:42:32 51°13.537 2°51.427 19.2021 0.068075 0.372992 -1.000568
2010-06-22 06:42:37 51°13.538 2°51.429 19.2036 0.067971 0.372403 -1.000568
2010-06-22 06:42:42 51°13.539 2°51.431 19.2045 0.068075 0.372998 -1.000568
2010-06-22 06:42:47 51°13.54 2°51.433 19.2064 0.068075 0.372998 -1.000568
2010-06-22 06:42:52 51°13.54 2°51.435 19.2066 0.068075 0.372992 -1.000568
2010-06-22 06:42:57 51°13.541 2°51.437 19.2106 0.068075 0.372998 -1.000568
2010-06-22 06:43:01 51°13.542 2°51.438 19.2126 0.068075 0.372998 -1.000568
2010-06-22 06:43:07 51°13.542 2°51.441 19.212 0.067971 0.372409 -1.035392
2010-06-22 06:43:12 51°13.543 2°51.442 19.2151 0.067971 0.372403 -1.000568
2010-06-22 06:43:17 51°13.543 2°51.444 19.2175 0.067971 0.372421 -1.000568
2010-06-22 06:43:21 51°13.544 2°51.446 19.2206 0.068075 0.373004 -1.000568
2010-06-22 06:43:27 51°13.545 2°51.448 19.2217 0.067971 0.372421 -1.000568
2010-06-22 06:43:32 51°13.546 2°51.45 19.2234 0.067971 0.372421 -1.000568
2010-06-22 06:43:37 51°13.546 2°51.452 19.226 0.068075 0.373004 -1.035392
2010-06-22 06:43:41 51°13.547 2°51.453 19.225 0.067971 0.372421 -1.035392
2010-06-22 06:43:47 51°13.548 2°51.455 19.2281 0.067971 0.372428 -1.000568
2010-06-22 06:43:52 51°13.549 2°51.457 19.2278 0.067971 0.372421 -1.000568
2010-06-22 06:43:57 51°13.549 2°51.459 19.2288 0.067971 0.372428 -1.000568
2010-06-22 06:44:02 51°13.55 2°51.461 19.2335 0.067971 0.372428 -1.000568
2010-06-22 06:44:07 51°13.55 2°51.463 19.2362 0.067971 0.372434 -1.035392
2010-06-22 06:44:12 51°13.551 2°51.465 19.2365 0.067971 0.372434 -1.000568
2010-06-22 06:44:17 51°13.551 2°51.467 19.2383 0.068075 0.373016 -1.000568
2010-06-22 06:44:21 51°13.552 2°51.468 19.2404 0.068075 0.373022 -1.000568
2010-06-22 06:44:27 51°13.553 2°51.47 19.2437 0.067971 0.372434 -0.965744
2010-06-22 06:44:32 51°13.553 2°51.472 19.2458 0.067971 0.372434 -0.965744
2010-06-22 06:44:37 51°13.554 2°51.474 19.2498 0.068075 0.373016 -1.000568
2010-06-22 06:44:42 51°13.555 2°51.476 19.2495 0.067971 0.372434 -1.000568
2010-06-22 06:44:47 51°13.556 2°51.478 19.2512 0.067971 0.372434 -1.035392
2010-06-22 06:44:52 51°13.557 2°51.48 19.2524 0.067971 0.372434 -1.000568
2010-06-22 06:44:57 51°13.557 2°51.482 19.2533 0.067971 0.372434 -1.000568
2010-06-22 06:45:02 51°13.557 2°51.484 19.2579 0.067971 0.372434 -1.000568
2010-06-22 06:45:07 51°13.558 2°51.486 19.2574 0.067971 0.372434 -1.035392
2010-06-22 06:45:12 51°13.558 2°51.488 19.261 0.067971 0.37244 -0.965744
2010-06-22 06:45:17 51°13.559 2°51.49 19.2642 0.068075 0.373034 -1.000568
2010-06-22 06:45:22 51°13.559 2°51.492 19.267 0.067971 0.372452 -1.000568
2010-06-22 06:45:27 51°13.56 2°51.494 19.2673 0.067971 0.372452 -1.000568
2010-06-22 06:45:32 51°13.561 2°51.496 19.2721 0.067971 0.372452 -1.000568
2010-06-22 06:45:37 51°13.561 2°51.498 19.273 0.067971 0.372452 -1.000568
2010-06-22 06:45:41 51°13.562 2°51.499 19.275 0.067971 0.372458 -1.035392
2010-06-22 06:45:47 51°13.563 2°51.501 19.2807 0.067971 0.372458 -1.000568
2010-06-22 06:45:52 51°13.563 2°51.504 19.2798 0.067971 0.372458 -1.000568
2010-06-22 06:45:57 51°13.564 2°51.506 19.2808 0.067971 0.372458 -1.035392
2010-06-22 06:46:01 51°13.564 2°51.507 19.2809 0.067971 0.372458 -1.035392
2010-06-22 06:46:07 51°13.565 2°51.51 19.2846 0.068075 0.373046 -1.000568
2010-06-22 06:46:12 51°13.566 2°51.512 19.288 0.067971 0.372464 -1.000568
2010-06-22 06:46:17 51°13.566 2°51.514 19.2896 0.067971 0.372464 -0.965744
2010-06-22 06:46:21 51°13.566 2°51.515 19.2912 0.067971 0.37247 -1.000568
2010-06-22 06:46:27 51°13.567 2°51.518 19.2929 0.067971 0.37247 -1.035392
2010-06-22 06:46:32 51°13.568 2°51.52 19.2966 0.067971 0.37247 -1.035392
2010-06-22 06:46:37 51°13.568 2°51.522 19.2995 0.067971 0.37247 -1.000568
2010-06-22 06:46:42 51°13.569 2°51.524 19.301 0.067971 0.37247 -1.000568
2010-06-22 06:46:47 51°13.57 2°51.526 19.3026 0.067971 0.37247 -1.000568
2010-06-22 06:46:52 51°13.57 2°51.528 19.3047 0.067971 0.372476 -1.000568
2010-06-22 06:46:57 51°13.571 2°51.53 19.3081 0.067971 0.372482 -1.000568
2010-06-22 06:47:01 51°13.572 2°51.532 19.3065 0.067971 0.372482 -1.000568
2010-06-22 06:47:07 51°13.572 2°51.534 19.3098 0.067971 0.372482 -1.000568
2010-06-22 06:47:12 51°13.573 2°51.536 19.3121 0.067971 0.372476 -1.000568
2010-06-22 06:47:17 51°13.574 2°51.539 19.314 0.067971 0.372482 -1.035392
2010-06-22 06:47:22 51°13.574 2°51.541 19.3148 0.067971 0.372482 -0.965744
2010-06-22 06:47:27 51°13.575 2°51.543 19.3195 0.067971 0.372482 -1.035392
2010-06-22 06:47:32 51°13.575 2°51.545 19.3177 0.067971 0.372482 -1.035392
2010-06-22 06:47:37 51°13.576 2°51.547 19.3246 0.067971 0.372482 -1.000568
2010-06-22 06:47:41 51°13.576 2°51.549 19.3254 0.067971 0.372488 -1.000568
2010-06-22 06:47:47 51°13.577 2°51.551 19.3266 0.067971 0.372482 -1.000568
2010-06-22 06:47:52 51°13.577 2°51.554 19.3318 0.067971 0.372494 -1.035392
2010-06-22 06:47:57 51°13.578 2°51.556 19.334 0.067971 0.372488 -1.035392
2010-06-22 06:48:01 51°13.578 2°51.558 19.3365 0.067971 0.372488 -1.035392
2010-06-22 06:48:07 51°13.579 2°51.56 19.3361 0.067971 0.372488 -1.000568
2010-06-22 06:48:12 51°13.58 2°51.563 19.3376 0.067971 0.372494 -1.000568
2010-06-22 06:48:17 51°13.581 2°51.566 19.3431 0.067971 0.372494 -1.035392
2010-06-22 06:48:21 51°13.581 2°51.569 19.3398 0.067971 0.372494 -1.000568
2010-06-22 06:48:27 51°13.583 2°51.574 19.338 0.067971 0.372494 -1.000568
2010-06-22 06:48:32 51°13.584 2°51.578 19.3413 0.067971 0.372494 -1.000568
2010-06-22 06:48:37 51°13.585 2°51.583 19.3411 0.067971 0.3725 -1.000568
2010-06-22 06:48:42 51°13.585 2°51.587 19.3454 0.067971 0.3725 -0.965744
2010-06-22 06:48:47 51°13.587 2°51.591 19.3513 0.067971 0.372506 -1.000568
2010-06-22 06:48:52 51°13.587 2°51.595 19.3538 0.067971 0.372506 -1.000568
2010-06-22 06:48:57 51°13.588 2°51.599 19.3596 0.067971 0.372518 -1.000568
2010-06-22 06:49:01 51°13.589 2°51.602 19.3623 0.067971 0.372518 -1.000568
2010-06-22 06:49:07 51°13.59 2°51.606 19.3598 0.067971 0.372524 -1.035392
2010-06-22 06:49:12 51°13.591 2°51.61 19.3586 0.067971 0.372518 -1.000568
2010-06-22 06:49:17 51°13.592 2°51.613 19.3632 0.067971 0.372518 -1.000568
2010-06-22 06:49:22 51°13.592 2°51.617 19.3661 0.067971 0.372518 -1.035392
2010-06-22 06:49:27 51°13.593 2°51.62 19.3656 0.067971 0.372518 -1.000568
2010-06-22 06:49:32 51°13.594 2°51.623 19.3672 0.067971 0.372518 -1.000568
2010-06-22 06:49:37 51°13.594 2°51.627 19.3755 0.067971 0.372518 -1.000568
2010-06-22 06:49:42 51°13.595 2°51.63 19.3715 0.067971 0.372518 -1.000568
2010-06-22 06:49:47 51°13.596 2°51.633 19.384 0.067971 0.372524 -1.000568
2010-06-22 06:49:52 51°13.597 2°51.637 19.3868 0.067971 0.37253 -1.000568
2010-06-22 06:49:57 51°13.597 2°51.64 19.385 0.067971 0.37253 -0.965744
2010-06-22 06:50:01 51°13.598 2°51.643 19.3901 0.067971 0.37253 -0.965744
2010-06-22 06:50:07 51°13.599 2°51.646 19.3911 0.067971 0.372536 -1.035392
2010-06-22 06:50:12 51°13.599 2°51.65 19.3893 0.067971 0.37253 -1.000568
2010-06-22 06:50:17 51°13.6 2°51.653 19.3895 0.067971 0.372536 -0.965744
2010-06-22 06:50:21 51°13.6 2°51.656 19.3975 0.067971 0.37253 -1.000568
2010-06-22 06:50:27 51°13.601 2°51.659 19.3985 0.067971 0.372536 -0.965744
2010-06-22 06:50:32 51°13.601 2°51.663 19.3993 0.067971 0.372536 -0.965744
2010-06-22 06:50:37 51°13.602 2°51.666 19.4044 0.067971 0.372536 -1.000568
2010-06-22 06:50:41 51°13.602 2°51.668 19.4053 0.067971 0.37253 -1.000568
2010-06-22 06:50:47 51°13.603 2°51.672 19.4089 0.067971 0.372536 -1.000568
2010-06-22 06:50:52 51°13.604 2°51.675 19.4074 0.067971 0.372536 -1.000568
2010-06-22 06:50:57 51°13.604 2°51.678 19.4103 0.067971 0.372536 -1.000568
2010-06-22 06:51:01 51°13.605 2°51.68 19.4099 0.067971 0.372536 -1.000568
2010-06-22 06:51:07 51°13.606 2°51.684 19.411 0.067971 0.372542 -1.000568
2010-06-22 06:51:12 51°13.606 2°51.687 19.415 0.067971 0.372542 -1.000568
2010-06-22 06:51:17 51°13.607 2°51.69 19.4182 0.067971 0.372542 -0.965744
2010-06-22 06:51:22 51°13.607 2°51.693 19.4223 0.067971 0.372542 -1.000568
2010-06-22 06:51:27 51°13.608 2°51.696 19.4199 0.067971 0.372554 -1.000568
2010-06-22 06:51:32 51°13.608 2°51.699 19.4279 0.067971 0.372554 -1.000568
2010-06-22 06:51:37 51°13.608 2°51.702 19.4318 0.067971 0.372554 -1.000568
2010-06-22 06:51:42 51°13.609 2°51.705 19.4294 0.067971 0.372548 -1.000568
2010-06-22 06:51:47 51°13.61 2°51.709 19.4333 0.067971 0.372554 -0.965744
2010-06-22 06:51:52 51°13.61 2°51.712 19.4381 0.067971 0.372548 -1.000568
2010-06-22 06:51:57 51°13.611 2°51.715 19.4355 0.067971 0.372554 -1.035392
2010-06-22 06:52:02 51°13.611 2°51.718 19.4384 0.067971 0.372554 -1.035392
2010-06-22 06:52:07 51°13.612 2°51.721 19.4409 0.067971 0.372554 -1.000568
2010-06-22 06:52:12 51°13.613 2°51.723 19.4461 0.067971 0.372566 -1.035392
2010-06-22 06:52:17 51°13.613 2°51.726 19.4478 0.067971 0.37256 -1.035392
2010-06-22 06:52:21 51°13.614 2°51.729 19.4496 0.067971 0.37256 -1.000568
2010-06-22 06:52:27 51°13.614 2°51.732 19.4459 0.067971 0.37256 -1.000568
2010-06-22 06:52:32 51°13.615 2°51.735 19.4522 0.067971 0.37256 -1.000568
2010-06-22 06:52:37 51°13.616 2°51.738 19.454 0.067971 0.372566 -1.000568
2010-06-22 06:52:41 51°13.616 2°51.741 19.4607 0.067971 0.37256 -1.000568
2010-06-22 06:52:47 51°13.617 2°51.744 19.4618 0.067971 0.372566 -1.035392
2010-06-22 06:52:52 51°13.618 2°51.747 19.468 0.067971 0.372566 -1.000568
2010-06-22 06:52:57 51°13.619 2°51.75 19.471 0.067971 0.372566 -1.000568
2010-06-22 06:53:01 51°13.619 2°51.752 19.4658 0.067971 0.372566 -1.000568
2010-06-22 06:53:07 51°13.62 2°51.756 19.476 0.067971 0.372566 -0.965744
2010-06-22 06:53:12 51°13.621 2°51.759 19.4763 0.067971 0.372566 -0.965744
2010-06-22 06:53:17 51°13.621 2°51.761 19.4771 0.067971 0.372566 -1.000568
2010-06-22 06:53:22 51°13.622 2°51.764 19.4793 0.067971 0.372572 -1.000568
2010-06-22 06:53:27 51°13.622 2°51.767 19.4801 0.067971 0.372572 -1.035392
2010-06-22 06:53:32 51°13.623 2°51.77 19.4868 0.067971 0.372572 -1.035392
2010-06-22 06:53:37 51°13.623 2°51.773 19.4848 0.067971 0.372572 -1.000568
2010-06-22 06:53:41 51°13.624 2°51.775 19.4917 0.067971 0.372584 -1.000568
2010-06-22 06:53:47 51°13.625 2°51.779 19.4922 0.067971 0.372578 -1.000568
2010-06-22 06:53:52 51°13.625 2°51.781 19.4894 0.067971 0.372578 -1.000568
2010-06-22 06:53:57 51°13.626 2°51.784 19.4942 0.067971 0.372578 -1.000568
2010-06-22 06:54:02 51°13.627 2°51.787 19.4994 0.067971 0.372578 -1.000568
2010-06-22 06:54:07 51°13.627 2°51.79 19.4922 0.067971 0.372584 -1.035392
2010-06-22 06:54:12 51°13.628 2°51.793 19.5002 0.067971 0.372584 -1.000568
2010-06-22 06:54:17 51°13.629 2°51.795 19.5045 0.067971 0.372578 -1.035392
2010-06-22 06:54:21 51°13.629 2°51.798 19.511 0.067971 0.372584 -1.000568
2010-06-22 06:54:27 51°13.63 2°51.801 19.516 0.067971 0.372584 -1.000568
2010-06-22 06:54:32 51°13.631 2°51.804 19.5141 0.067971 0.372584 -1.000568
2010-06-22 06:54:37 51°13.631 2°51.807 19.52 0.067971 0.37259 -1.035392
2010-06-22 06:54:42 51°13.632 2°51.811 19.5179 0.067971 0.372584 -1.000568
2010-06-22 06:54:47 51°13.632 2°51.815 19.5183 0.067971 0.37259 -1.000568
2010-06-22 06:54:52 51°13.632 2°51.82 19.5184 0.067971 0.372584 -1.035392
2010-06-22 06:54:57 51°13.633 2°51.825 19.517 0.067971 0.372584 -1.000568
2010-06-22 06:55:01 51°13.633 2°51.829 19.5202 0.067971 0.372584 -1.000568
2010-06-22 06:55:07 51°13.632 2°51.836 19.5285 0.067971 0.37259 -1.035392
2010-06-22 06:55:12 51°13.632 2°51.842 19.529 0.067971 0.37259 -1.000568
2010-06-22 06:55:17 51°13.631 2°51.848 19.5262 0.067971 0.37259 -1.000568
2010-06-22 06:55:22 51°13.63 2°51.855 19.5406 0.067971 0.372602 -1.035392
2010-06-22 06:55:27 51°13.629 2°51.861 19.2109 0.067971 0.372602 -1.000568
2010-06-22 06:55:32 51°13.626 2°51.867 19.2099 0.067971 0.372602 -1.000568
2010-06-22 06:55:37 51°13.624 2°51.872 19.2463 0.067971 0.372608 -0.965744
2010-06-22 06:55:41 51°13.622 2°51.876 19.2736 0.067971 0.372614 -1.000568
2010-06-22 06:55:47 51°13.619 2°51.881 19.2831 0.067971 0.372626 -1.000568
2010-06-22 06:55:52 51°13.616 2°51.885 19.2944 0.067971 0.372632 -1.035392
2010-06-22 06:55:57 51°13.612 2°51.889 19.3213 0.067971 0.372626 -1.035392
2010-06-22 06:56:02 51°13.609 2°51.891 19.3304 0.067971 0.372626 -1.035392
2010-06-22 06:56:07 51°13.605 2°51.893 19.3477 0.067971 0.372626 -1.000568
2010-06-22 06:56:12 51°13.601 2°51.893 19.3491 0.067971 0.372638 -1.035392
2010-06-22 06:56:17 51°13.597 2°51.893 19.3563 0.067971 0.372638 -1.000568
2010-06-22 06:56:21 51°13.594 2°51.893 19.3142 0.067971 0.372638 -1.000568
2010-06-22 06:56:27 51°13.59 2°51.89 19.3335 0.067971 0.372644 -1.035392
2010-06-22 06:56:32 51°13.585 2°51.887 19.3362 0.067971 0.372644 -1.035392
2010-06-22 06:56:37 51°13.581 2°51.882 19.3708 0.067971 0.372638 -0.965744
2010-06-22 06:56:41 51°13.578 2°51.877 19.3562 0.067971 0.372644 -1.000568
2010-06-22 06:56:47 51°13.573 2°51.868 19.338 0.067971 0.372632 -0.965744
2010-06-22 06:56:52 51°13.569 2°51.858 19.346 0.067971 0.37262 -1.000568
2010-06-22 06:56:57 51°13.565 2°51.849 19.3495 0.067971 0.372632 -1.035392
2010-06-22 06:57:01 51°13.562 2°51.84 19.3362 0.067971 0.372632 -1.035392
2010-06-22 06:57:07 51°13.556 2°51.825 19.3612 0.067971 0.372638 -1.000568
2010-06-22 06:57:12 51°13.55 2°51.812 19.3394 0.067971 0.372626 -1.000568
2010-06-22 06:57:17 51°13.545 2°51.798 19.3659 0.067971 0.37262 -1.000568
2010-06-22 06:57:22 51°13.539 2°51.783 19.362 0.067971 0.372626 -1.000568
2010-06-22 06:57:27 51°13.532 2°51.768 19.3782 0.067971 0.372626 -1.000568
2010-06-22 06:57:32 51°13.526 2°51.753 19.3804 0.067971 0.372626 -1.000568
2010-06-22 06:57:37 51°13.519 2°51.736 19.3759 0.067971 0.372626 -1.000568
2010-06-22 06:57:41 51°13.513 2°51.722 19.3911 0.067971 0.372632 -1.000568
2010-06-22 06:57:47 51°13.505 2°51.701 19.3837 0.067971 0.372632 -1.000568
2010-06-22 06:57:52 51°13.498 2°51.682 19.3867 0.067971 0.37262 -1.000568
2010-06-22 06:57:57 51°13.49 2°51.663 19.3942 0.067971 0.372644 -1.000568
2010-06-22 06:58:02 51°13.483 2°51.644 19.3849 0.067971 0.372644 -1.000568
2010-06-22 06:58:07 51°13.475 2°51.624 19.42 0.067971 0.372632 -1.000568
2010-06-22 06:58:12 51°13.467 2°51.603 19.3923 0.067971 0.372656 -1.000568
2010-06-22 06:58:17 51°13.46 2°51.582 19.4241 0.067971 0.372638 -1.035392
2010-06-22 06:58:21 51°13.452 2°51.565 19.4066 0.067971 0.372644 -1.000568
2010-06-22 06:58:27 51°13.444 2°51.538 19.4189 0.067971 0.372644 -1.000568
2010-06-22 06:58:32 51°13.436 2°51.516 19.4138 0.067971 0.372644 -1.000568
2010-06-22 06:58:37 51°13.429 2°51.492 19.4073 0.067971 0.372638 -1.035392
2010-06-22 06:58:41 51°13.423 2°51.474 19.4057 0.067971 0.372644 -1.000568
2010-06-22 06:58:47 51°13.415 2°51.445 19.4261 0.067971 0.372638 -1.000568
2010-06-22 06:58:52 51°13.408 2°51.421 19.4058 0.067971 0.372638 -1.000568
2010-06-22 06:58:57 51°13.401 2°51.396 19.4362 0.067971 0.372644 -1.000568
2010-06-22 06:59:01 51°13.395 2°51.377 19.4097 0.067971 0.372644 -1.000568
2010-06-22 06:59:07 51°13.388 2°51.348 19.4282 0.067971 0.372644 -0.965744
2010-06-22 06:59:12 51°13.381 2°51.324 19.4287 0.067971 0.372656 -1.035392
2010-06-22 06:59:17 51°13.374 2°51.299 19.4202 0.067971 0.372656 -1.035392
2010-06-22 06:59:22 51°13.368 2°51.275 19.447 0.067971 0.372656 -1.000568
2010-06-22 06:59:27 51°13.361 2°51.25 19.4199 0.067971 0.37265 -1.000568
2010-06-22 06:59:32 51°13.354 2°51.226 19.4254 0.067971 0.37265 -1.000568
2010-06-22 06:59:37 51°13.347 2°51.201 19.4359 0.067971 0.372656 -1.000568
2010-06-22 06:59:41 51°13.342 2°51.182 19.4291 0.067971 0.372656 -1.035392
2010-06-22 06:59:47 51°13.334 2°51.153 19.4413 0.067971 0.37265 -1.000568
2010-06-22 06:59:52 51°13.327 2°51.128 19.4259 0.067971 0.372656 -0.965744
2010-06-22 06:59:57 51°13.321 2°51.104 19.4571 0.067971 0.37265 -1.000568
2010-06-22 07:00:02 51°13.314 2°51.08 19.4283 0.067971 0.37265 -1.000568
2010-06-22 07:00:07 51°13.308 2°51.055 19.4659 0.067971 0.372644 -1.000568
2010-06-22 07:00:12 51°13.3 2°51.031 19.4187 0.067971 0.372674 -1.000568
2010-06-22 07:00:17 51°13.295 2°51.006 19.4627 0.067971 0.37265 -1.000568
2010-06-22 07:00:21 51°13.287 2°50.988 19.4405 0.067971 0.372692 -1.000568
2010-06-22 07:00:27 51°13.279 2°50.959 19.4445 0.067971 0.372674 -1.035392
2010-06-22 07:00:32 51°13.271 2°50.936 19.4565 0.067971 0.372674 -1.035392
2010-06-22 07:00:37 51°13.263 2°50.912 19.4416 0.067971 0.372692 -1.035392
2010-06-22 07:00:42 51°13.256 2°50.889 19.466 0.067971 0.372668 -1.000568
2010-06-22 07:00:47 51°13.247 2°50.866 19.4509 0.067971 0.37268 -1.035392
2010-06-22 07:00:52 51°13.24 2°50.842 19.4518 0.067971 0.372662 -1.000568
2010-06-22 07:00:57 51°13.231 2°50.819 19.4543 0.067971 0.372668 -1.000568
2010-06-22 07:01:01 51°13.225 2°50.801 19.4517 0.067971 0.372668 -1.000568
2010-06-22 07:01:07 51°13.215 2°50.773 19.4677 0.067971 0.372662 -1.000568
2010-06-22 07:01:12 51°13.206 2°50.75 19.4609 0.067971 0.372674 -0.965744
2010-06-22 07:01:17 51°13.198 2°50.727 19.4616 0.067971 0.372674 -1.000568
2010-06-22 07:01:21 51°13.192 2°50.709 19.4719 0.067971 0.372668 -1.000568
2010-06-22 07:01:27 51°13.181 2°50.681 19.4673 0.067971 0.372686 -0.965744
2010-06-22 07:01:32 51°13.173 2°50.658 19.4677 0.067971 0.372686 -0.965744
2010-06-22 07:01:37 51°13.165 2°50.635 19.4726 0.067971 0.372674 -1.035392
2010-06-22 07:01:41 51°13.158 2°50.616 19.4706 0.067971 0.372686 -1.035392
2010-06-22 07:01:47 51°13.148 2°50.589 19.468 0.067971 0.372692 -1.000568
2010-06-22 07:01:52 51°13.14 2°50.565 19.4819 0.067971 0.372686 -1.035392
2010-06-22 07:01:57 51°13.132 2°50.542 19.474 0.067971 0.372692 -0.965744
2010-06-22 07:02:01 51°13.125 2°50.523 19.4749 0.067971 0.372692 -0.965744
2010-06-22 07:02:07 51°13.116 2°50.496 19.4883 0.067971 0.372692 -1.000568
2010-06-22 07:02:12 51°13.107 2°50.473 19.4716 0.067971 0.372699 -1.000568
2010-06-22 07:02:17 51°13.099 2°50.449 19.4962 0.067971 0.372692 -0.965744
2010-06-22 07:02:21 51°13.092 2°50.432 19.4762 0.067971 0.372711 -1.000568
2010-06-22 07:02:27 51°13.083 2°50.403 19.4957 0.067971 0.372699 -1.000568
2010-06-22 07:02:32 51°13.073 2°50.38 19.4785 0.067971 0.372699 -1.000568
2010-06-22 07:02:37 51°13.066 2°50.356 19.4941 0.067971 0.372705 -0.965744
2010-06-22 07:02:42 51°13.057 2°50.334 19.4939 0.067971 0.372717 -1.000568
2010-06-22 07:02:47 51°13.05 2°50.31 19.5023 0.067971 0.372717 -1.000568
2010-06-22 07:02:52 51°13.041 2°50.288 19.5035 0.067971 0.372735 -1.000568
2010-06-22 07:02:57 51°13.033 2°50.264 19.489 0.067971 0.372723 -1.000568
2010-06-22 07:03:02 51°13.025 2°50.241 19.5052 0.067971 0.372723 -1.000568
2010-06-22 07:03:07 51°13.016 2°50.218 19.495 0.067971 0.372735 -1.000568
2010-06-22 07:03:12 51°13.008 2°50.195 19.5002 0.067971 0.372723 -0.965744
2010-06-22 07:03:17 51°13 2°50.172 19.4964 0.067971 0.372723 -1.000568
2010-06-22 07:03:22 51°12.992 2°50.149 19.5032 0.067971 0.372741 -1.000568
2010-06-22 07:03:27 51°12.984 2°50.126 19.5036 0.067971 0.372717 -1.000568
2010-06-22 07:03:32 51°12.975 2°50.103 19.5037 0.067971 0.372717 -1.000568
2010-06-22 07:03:37 51°12.967 2°50.079 19.5064 0.067971 0.372735 -1.000568
2010-06-22 07:03:41 51°12.96 2°50.061 19.5088 0.067971 0.372729 -1.000568
2010-06-22 07:03:47 51°12.951 2°50.033 19.5236 0.067971 0.372735 -1.000568
2010-06-22 07:03:52 51°12.941 2°50.011 19.5084 0.067971 0.372747 -1.035392
2010-06-22 07:03:57 51°12.934 2°49.988 19.5236 0.067971 0.372735 -1.000568
2010-06-22 07:04:01 51°12.926 2°49.97 19.5129 0.067971 0.372735 -1.000568
2010-06-22 07:04:07 51°12.917 2°49.942 19.5216 0.067971 0.372741 -1.000568
2010-06-22 07:04:12 51°12.909 2°49.919 19.5196 0.067971 0.372747 -1.000568
2010-06-22 07:04:17 51°12.901 2°49.896 19.5188 0.067971 0.372741 -0.965744
2010-06-22 07:04:21 51°12.894 2°49.877 19.5265 0.067971 0.372753 -1.035392
2010-06-22 07:04:27 51°12.884 2°49.85 19.5209 0.067971 0.372747 -1.000568
2010-06-22 07:04:32 51°12.876 2°49.827 19.5284 0.067971 0.372747 -1.000568
2010-06-22 07:04:37 51°12.868 2°49.804 19.5248 0.067971 0.372753 -1.000568
2010-06-22 07:04:42 51°12.86 2°49.781 19.5351 0.067971 0.372753 -1.000568
2010-06-22 07:04:47 51°12.851 2°49.758 19.5274 0.067971 0.372753 -0.965744
2010-06-22 07:04:52 51°12.843 2°49.735 19.5391 0.067971 0.372759 -1.000568
2010-06-22 07:04:57 51°12.835 2°49.711 19.5281 0.067971 0.372741 -1.035392
2010-06-22 07:05:01 51°12.829 2°49.693 19.5423 0.067971 0.372741 -1.035392
2010-06-22 07:05:07 51°12.818 2°49.665 19.5292 0.067971 0.372777 -1.000568
2010-06-22 07:05:12 51°12.811 2°49.641 19.5437 0.067971 0.372753 -1.000568
2010-06-22 07:05:17 51°12.802 2°49.619 19.5409 0.067971 0.372783 -1.000568
2010-06-22 07:05:22 51°12.794 2°49.595 19.5388 0.067971 0.372771 -1.035392
2010-06-22 07:05:27 51°12.786 2°49.572 19.544 0.067971 0.372771 -1.035392
2010-06-22 07:05:32 51°12.777 2°49.549 19.5493 0.067971 0.372771 -1.035392
2010-06-22 07:05:37 51°12.769 2°49.526 19.5418 0.067971 0.372783 -0.965744
2010-06-22 07:05:41 51°12.763 2°49.507 19.5584 0.067971 0.372765 -0.965744
2010-06-22 07:05:47 51°12.752 2°49.48 19.5389 0.067971 0.372789 -1.035392
2010-06-22 07:05:52 51°12.746 2°49.456 19.5629 0.067971 0.372765 -0.965744
2010-06-22 07:05:57 51°12.735 2°49.434 19.5495 0.067971 0.372795 -1.000568
2010-06-22 07:06:01 51°12.73 2°49.414 19.5597 0.067971 0.372795 -1.000568
2010-06-22 07:06:07 51°12.719 2°49.388 19.5561 0.067971 0.372789 -1.000568
2010-06-22 07:06:12 51°12.712 2°49.364 19.5573 0.067971 0.372795 -1.000568
2010-06-22 07:06:17 51°12.704 2°49.34 19.5593 0.067971 0.372807 -1.000568
2010-06-22 07:06:21 51°12.697 2°49.322 19.5546 0.067971 0.372807 -1.035392
2010-06-22 07:06:27 51°12.687 2°49.294 19.5629 0.067971 0.372801 -1.000568
2010-06-22 07:06:32 51°12.679 2°49.271 19.5558 0.067971 0.372801 -1.000568
2010-06-22 07:06:37 51°12.671 2°49.248 19.5701 0.067971 0.372777 -1.000568
2010-06-22 07:06:42 51°12.662 2°49.225 19.5479 0.067971 0.372813 -1.035392
2010-06-22 07:06:47 51°12.655 2°49.201 19.578 0.067971 0.372771 -1.035392
2010-06-22 07:06:52 51°12.645 2°49.179 19.5587 0.067971 0.372819 -1.000568
2010-06-22 07:06:57 51°12.639 2°49.155 19.5713 0.067971 0.372819 -1.000568
2010-06-22 07:07:01 51°12.631 2°49.137 19.5704 0.067971 0.372819 -1.000568
2010-06-22 07:07:07 51°12.621 2°49.109 19.5705 0.067971 0.372825 -1.000568
2010-06-22 07:07:12 51°12.614 2°49.085 19.5713 0.067971 0.372831 -1.000568
2010-06-22 07:07:17 51°12.605 2°49.063 19.5764 0.067971 0.372819 -1.000568
2010-06-22 07:07:22 51°12.597 2°49.039 19.5752 0.067971 0.372807 -1.000568
2010-06-22 07:07:27 51°12.589 2°49.017 19.5833 0.067971 0.372825 -1.035392
2010-06-22 07:07:32 51°12.58 2°48.993 19.5785 0.067971 0.372825 -1.035392
2010-06-22 07:07:37 51°12.572 2°48.97 19.5867 0.067971 0.372789 -1.000568
2010-06-22 07:07:41 51°12.565 2°48.952 19.5811 0.067971 0.372831 -1.000568
2010-06-22 07:07:47 51°12.556 2°48.924 19.5924 0.067971 0.372807 -1.000568
2010-06-22 07:07:52 51°12.547 2°48.901 19.5809 0.067971 0.372837 -0.965744
2010-06-22 07:07:57 51°12.54 2°48.878 19.5868 0.067971 0.372849 -1.035392
2010-06-22 07:08:01 51°12.532 2°48.86 19.587 0.067971 0.372849 -1.035392
2010-06-22 07:08:07 51°12.523 2°48.832 19.5887 0.067971 0.372831 -1.000568
2010-06-22 07:08:12 51°12.515 2°48.808 19.5853 0.067971 0.372849 -0.965744
2010-06-22 07:08:17 51°12.507 2°48.786 19.5962 0.067971 0.372831 -1.000568
2010-06-22 07:08:21 51°12.499 2°48.768 19.5911 0.067971 0.372843 -1.035392
2010-06-22 07:08:27 51°12.49 2°48.739 19.5949 0.067971 0.372837 -1.000568
2010-06-22 07:08:32 51°12.481 2°48.717 19.5941 0.067971 0.372837 -1.000568
2010-06-22 07:08:37 51°12.473 2°48.694 19.5997 0.067971 0.372825 -1.000568
2010-06-22 07:08:42 51°12.465 2°48.671 19.596 0.067971 0.372843 -1.000568
2010-06-22 07:08:47 51°12.457 2°48.648 19.6022 0.067971 0.372837 -1.000568
2010-06-22 07:08:52 51°12.448 2°48.626 19.6005 0.067971 0.372849 -1.035392
2010-06-22 07:08:57 51°12.44 2°48.602 19.6035 0.067971 0.372837 -1.000568
2010-06-22 07:09:01 51°12.433 2°48.584 19.6059 0.067971 0.372837 -1.000568
2010-06-22 07:09:07 51°12.423 2°48.557 19.6021 0.067971 0.372849 -0.965744
2010-06-22 07:09:12 51°12.415 2°48.533 19.6087 0.067971 0.372843 -1.000568
2010-06-22 07:09:17 51°12.407 2°48.511 19.6071 0.067971 0.372855 -1.000568
2010-06-22 07:09:22 51°12.399 2°48.487 19.6102 0.067971 0.372843 -1.000568
2010-06-22 07:09:27 51°12.39 2°48.465 19.6113 0.067971 0.372867 -1.000568
2010-06-22 07:09:32 51°12.383 2°48.441 19.6127 0.067971 0.372867 -1.000568
2010-06-22 07:09:37 51°12.374 2°48.419 19.6158 0.067971 0.372849 -1.000568
2010-06-22 07:09:41 51°12.368 2°48.4 19.6134 0.067971 0.372873 -1.000568
2010-06-22 07:09:47 51°12.358 2°48.372 19.6192 0.067971 0.372855 -1.035392
2010-06-22 07:09:52 51°12.349 2°48.349 19.6175 0.067971 0.372873 -1.000568
2010-06-22 07:09:57 51°12.342 2°48.325 19.6214 0.067971 0.372861 -1.000568
2010-06-22 07:10:02 51°12.333 2°48.303 19.6204 0.067971 0.372861 -1.000568
2010-06-22 07:10:07 51°12.326 2°48.279 19.6234 0.067971 0.372873 -1.000568
2010-06-22 07:10:12 51°12.317 2°48.256 19.6241 0.067971 0.372867 -1.000568
2010-06-22 07:10:17 51°12.309 2°48.233 19.6266 0.067971 0.372873 -1.000568
2010-06-22 07:10:21 51°12.302 2°48.214 19.6265 0.067971 0.372873 -1.000568
2010-06-22 07:10:27 51°12.293 2°48.186 19.6306 0.067971 0.372885 -1.000568
2010-06-22 07:10:32 51°12.284 2°48.163 19.6304 0.067971 0.372885 -1.000568
2010-06-22 07:10:37 51°12.277 2°48.139 19.6337 0.067971 0.372879 -1.000568
2010-06-22 07:10:42 51°12.268 2°48.117 19.6335 0.067971 0.372898 -0.965744
2010-06-22 07:10:47 51°12.26 2°48.093 19.6338 0.067971 0.372879 -1.000568
2010-06-22 07:10:52 51°12.252 2°48.069 19.6363 0.067971 0.372898 -1.035392
2010-06-22 07:10:57 51°12.243 2°48.046 19.6367 0.067971 0.372904 -0.965744
2010-06-22 07:11:01 51°12.238 2°48.027 19.6394 0.067971 0.372904 -0.965744
2010-06-22 07:11:07 51°12.227 2°48 19.6405 0.067971 0.37291 -1.000568
2010-06-22 07:11:12 51°12.219 2°47.976 19.6414 0.067971 0.372904 -1.035392
2010-06-22 07:11:17 51°12.211 2°47.953 19.6424 0.067971 0.372904 -1.000568
2010-06-22 07:11:22 51°12.202 2°47.93 19.6444 0.067971 0.372916 -1.035392
2010-06-22 07:11:27 51°12.194 2°47.906 19.6454 0.067971 0.37291 -1.000568
2010-06-22 07:11:32 51°12.186 2°47.883 19.6474 0.067971 0.37291 -1.000568
2010-06-22 07:11:37 51°12.177 2°47.859 19.6484 0.067971 0.372922 -0.965744
2010-06-22 07:11:41 51°12.171 2°47.84 19.6497 0.067971 0.37291 -1.000568
2010-06-22 07:11:47 51°12.161 2°47.812 19.6512 0.067971 0.372922 -0.965744
2010-06-22 07:11:52 51°12.153 2°47.789 19.6526 0.067971 0.372928 -1.000568
2010-06-22 07:11:57 51°12.145 2°47.766 19.6537 0.067971 0.372922 -1.000568
2010-06-22 07:12:01 51°12.138 2°47.747 19.6561 0.067971 0.372922 -1.000568
2010-06-22 07:12:07 51°12.128 2°47.719 19.6558 0.067971 0.37294 -1.000568
2010-06-22 07:12:12 51°12.119 2°47.696 19.6574 0.067971 0.372928 -1.000568
2010-06-22 07:12:17 51°12.112 2°47.672 19.6587 0.067971 0.372928 -1.000568
2010-06-22 07:12:21 51°12.105 2°47.654 19.6605 0.067971 0.372946 -1.000568
2010-06-22 07:12:27 51°12.095 2°47.625 19.6622 0.067971 0.372934 -0.965744
2010-06-22 07:12:32 51°12.086 2°47.603 19.6644 0.067971 0.372934 -0.965744
2010-06-22 07:12:37 51°12.078 2°47.579 19.6652 0.067971 0.372946 -1.000568
2010-06-22 07:12:41 51°12.071 2°47.561 19.6662 0.067971 0.372952 -1.035392
2010-06-22 07:12:47 51°12.062 2°47.533 19.668 0.067971 0.372946 -1.000568
2010-06-22 07:12:52 51°12.054 2°47.51 19.6677 0.067971 0.372952 -1.000568
2010-06-22 07:12:57 51°12.045 2°47.486 19.6709 0.067971 0.372964 -1.000568
2010-06-22 07:13:01 51°12.039 2°47.467 19.6718 0.067971 0.372964 -1.000568
2010-06-22 07:13:07 51°12.028 2°47.44 19.6733 0.067971 0.372946 -1.000568
2010-06-22 07:13:12 51°12.021 2°47.416 19.6756 0.067971 0.37297 -1.000568
2010-06-22 07:13:17 51°12.013 2°47.392 19.6744 0.067971 0.372964 -0.965744
2010-06-22 07:13:21 51°12.006 2°47.374 19.6785 0.067971 0.372976 -1.000568
2010-06-22 07:13:27 51°11.998 2°47.345 19.6776 0.067971 0.372964 -1.035392
2010-06-22 07:13:32 51°11.989 2°47.322 19.6818 0.067971 0.372964 -1.035392
2010-06-22 07:13:37 51°11.983 2°47.297 19.6806 0.067971 0.37297 -1.000568
2010-06-22 07:13:42 51°11.974 2°47.274 19.6819 0.067971 0.372976 -1.035392
2010-06-22 07:13:47 51°11.968 2°47.249 19.6843 0.067971 0.372976 -1.000568
2010-06-22 07:13:52 51°11.96 2°47.226 19.6859 0.067971 0.373 -1.000568
2010-06-22 07:13:57 51°11.953 2°47.202 19.6879 0.067971 0.372976 -1.035392
2010-06-22 07:14:01 51°11.947 2°47.183 19.6887 0.067971 0.372976 -1.035392
2010-06-22 07:14:07 51°11.938 2°47.154 19.6884 0.067971 0.372988 -0.965744
2010-06-22 07:14:12 51°11.931 2°47.13 19.6915 0.067971 0.373006 -1.035392
2010-06-22 07:14:17 51°11.924 2°47.106 19.6927 0.067971 0.372976 -1.035392
2010-06-22 07:14:22 51°11.916 2°47.083 19.6933 0.067971 0.372982 -0.965744
2010-06-22 07:14:27 51°11.908 2°47.059 19.6975 0.067971 0.372988 -1.000568
2010-06-22 07:14:32 51°11.902 2°47.034 19.6967 0.067971 0.372988 -1.000568
2010-06-22 07:14:37 51°11.894 2°47.011 19.6984 0.067971 0.372988 -1.000568
2010-06-22 07:14:41 51°11.889 2°46.991 19.699 0.067971 0.372988 -1.000568
2010-06-22 07:14:47 51°11.88 2°46.962 19.7019 0.067971 0.372994 -1.000568
2010-06-22 07:14:52 51°11.874 2°46.938 19.7007 0.067971 0.372994 -1.000568
2010-06-22 07:14:57 51°11.866 2°46.914 19.7066 0.067971 0.373006 -1.000568
2010-06-22 07:15:02 51°11.86 2°46.889 19.7015 0.067971 0.373006 -1.000568
2010-06-22 07:15:07 51°11.853 2°46.865 19.7083 0.067971 0.373012 -1.000568
2010-06-22 07:15:12 51°11.847 2°46.84 19.7072 0.067971 0.372994 -1.000568
2010-06-22 07:15:17 51°11.84 2°46.815 19.7096 0.067971 0.373012 -1.000568
2010-06-22 07:15:21 51°11.836 2°46.795 19.7095 0.067971 0.372994 -1.035392
2010-06-22 07:15:27 51°11.829 2°46.765 19.7108 0.067971 0.373018 -1.000568
2010-06-22 07:15:32 51°11.824 2°46.74 19.7155 0.067971 0.373018 -1.000568
2010-06-22 07:15:37 51°11.819 2°46.715 19.7128 0.067971 0.373 -1.035392
2010-06-22 07:15:42 51°11.813 2°46.689 19.7171 0.067971 0.373024 -1.000568
2010-06-22 07:15:47 51°11.808 2°46.664 19.7158 0.067971 0.373012 -1.000568
2010-06-22 07:15:52 51°11.803 2°46.639 19.72 0.067971 0.373018 -0.965744
2010-06-22 07:15:57 51°11.798 2°46.613 19.722 0.067971 0.373012 -1.000568
2010-06-22 07:16:01 51°11.794 2°46.593 19.723 0.067971 0.373012 -1.000568
2010-06-22 07:16:07 51°11.787 2°46.563 19.721 0.067971 0.373012 -1.000568
2010-06-22 07:16:12 51°11.782 2°46.537 19.7259 0.067971 0.373018 -1.000568
2010-06-22 07:16:17 51°11.777 2°46.512 19.7228 0.067971 0.373018 -1.000568
2010-06-22 07:16:22 51°11.772 2°46.486 19.7303 0.067971 0.373024 -1.000568
2010-06-22 07:16:27 51°11.767 2°46.461 19.7264 0.067971 0.373036 -1.035392
2010-06-22 07:16:32 51°11.761 2°46.436 19.731 0.067971 0.373036 -1.035392
2010-06-22 07:16:37 51°11.757 2°46.41 19.7313 0.067971 0.373042 -1.000568
2010-06-22 07:16:41 51°11.752 2°46.39 19.734 0.067971 0.373042 -1.000568
2010-06-22 07:16:47 51°11.746 2°46.36 19.7331 0.067971 0.373036 -1.000568
2010-06-22 07:16:52 51°11.741 2°46.334 19.7386 0.067971 0.37303 -1.000568
2010-06-22 07:16:57 51°11.736 2°46.309 19.734 0.067971 0.373036 -1.000568
2010-06-22 07:17:01 51°11.731 2°46.289 19.74 0.067971 0.373036 -1.000568
2010-06-22 07:17:07 51°11.725 2°46.258 19.7363 0.067971 0.37303 -1.000568
2010-06-22 07:17:12 51°11.72 2°46.233 19.7427 0.067971 0.373048 -1.000568
2010-06-22 07:17:17 51°11.715 2°46.208 19.7419 0.067971 0.373048 -1.035392
2010-06-22 07:17:21 51°11.71 2°46.188 19.7393 0.067971 0.373055 -1.035392
2010-06-22 07:17:27 51°11.704 2°46.157 19.7474 0.067971 0.373042 -1.035392
2010-06-22 07:17:32 51°11.699 2°46.132 19.7425 0.067971 0.373042 -1.035392
2010-06-22 07:17:37 51°11.693 2°46.107 19.7509 0.067971 0.373067 -1.000568
2010-06-22 07:17:42 51°11.688 2°46.081 19.7469 0.067971 0.373048 -1.000568
2010-06-22 07:17:47 51°11.682 2°46.057 19.7487 0.067971 0.373073 -1.000568
2010-06-22 07:17:52 51°11.677 2°46.031 19.7543 0.067971 0.373061 -1.000568
2010-06-22 07:17:57 51°11.672 2°46.006 19.7472 0.067971 0.373067 -0.965744
2010-06-22 07:18:01 51°11.667 2°45.986 19.7564 0.067971 0.373067 -0.965744
2010-06-22 07:18:07 51°11.662 2°45.955 19.7533 0.067971 0.373055 -1.000568
2010-06-22 07:18:12 51°11.655 2°45.93 19.7556 0.067971 0.373067 -1.000568
2010-06-22 07:18:17 51°11.651 2°45.904 19.7585 0.067971 0.373061 -1.000568
2010-06-22 07:18:22 51°11.645 2°45.879 19.7564 0.067971 0.373067 -1.000568
2010-06-22 07:18:27 51°11.64 2°45.854 19.7616 0.067971 0.373067 -1.000568
2010-06-22 07:18:32 51°11.635 2°45.828 19.7594 0.067971 0.373067 -1.000568
2010-06-22 07:18:37 51°11.629 2°45.803 19.7657 0.067971 0.373073 -1.000568
2010-06-22 07:18:42 51°11.624 2°45.778 19.763 0.067971 0.373067 -1.000568
2010-06-22 07:18:47 51°11.618 2°45.753 19.7657 0.067971 0.373079 -1.000568
2010-06-22 07:18:52 51°11.613 2°45.727 19.7683 0.067971 0.373073 -1.000568
2010-06-22 07:18:57 51°11.607 2°45.702 19.7693 0.067971 0.373073 -1.035392
2010-06-22 07:19:01 51°11.603 2°45.682 19.7715 0.067971 0.373073 -1.035392
2010-06-22 07:19:07 51°11.597 2°45.651 19.773 0.067971 0.373079 -1.000568
2010-06-22 07:19:12 51°11.591 2°45.626 19.7755 0.067867 0.372489 -1.000568
2010-06-22 07:19:17 51°11.586 2°45.6 19.774 0.067971 0.373079 -0.965744
2010-06-22 07:19:21 51°11.581 2°45.58 19.776 0.067971 0.373085 -1.000568
2010-06-22 07:19:27 51°11.575 2°45.55 19.7754 0.067971 0.373091 -1.000568
2010-06-22 07:19:32 51°11.569 2°45.525 19.7823 0.067971 0.373091 -1.000568
2010-06-22 07:19:37 51°11.565 2°45.499 19.7699 0.067971 0.373097 -1.000568
2010-06-22 07:19:41 51°11.559 2°45.479 19.7904 0.067971 0.373097 -1.000568
2010-06-22 07:19:47 51°11.554 2°45.448 19.776 0.067971 0.373085 -1.000568
2010-06-22 07:19:52 51°11.547 2°45.424 19.7892 0.067867 0.372519 -1.000568
2010-06-22 07:19:57 51°11.543 2°45.398 19.7865 0.067971 0.373097 -1.035392
2010-06-22 07:20:02 51°11.537 2°45.373 19.7857 0.067971 0.373097 -1.035392
2010-06-22 07:20:07 51°11.532 2°45.348 19.7834 0.067971 0.373115 -1.035392
2010-06-22 07:20:12 51°11.526 2°45.323 19.7916 0.067971 0.373115 -1.000568
2010-06-22 07:20:17 51°11.52 2°45.297 19.7918 0.067867 0.372519 -1.035392
2010-06-22 07:20:21 51°11.516 2°45.277 19.7923 0.067971 0.373115 -1.035392
2010-06-22 07:20:27 51°11.509 2°45.247 19.7954 0.067971 0.373109 -1.035392
2010-06-22 07:20:32 51°11.504 2°45.221 19.7956 0.067971 0.373109 -1.035392
2010-06-22 07:20:37 51°11.498 2°45.197 19.7922 0.067971 0.373103 -1.000568
2010-06-22 07:20:42 51°11.493 2°45.171 19.7979 0.067867 0.372525 -1.000568
2010-06-22 07:20:47 51°11.488 2°45.146 19.7947 0.067971 0.373109 -1.035392
2010-06-22 07:20:52 51°11.482 2°45.121 19.8056 0.067867 0.372531 -1.000568
2010-06-22 07:20:57 51°11.477 2°45.095 16.4884 0.067971 0.373121 -0.965744
2010-06-22 07:21:02 51°11.472 2°45.07 16.2967 0.067971 0.373121 -0.965744
2010-06-22 07:21:07 51°11.466 2°45.045 15.9603 0.068179 0.376548 -0.965744
2010-06-22 07:21:12 51°11.462 2°45.019 15.7628 0.317038 1.866082 -1.035392
2010-06-22 07:21:17 51°11.456 2°44.994 15.6684 0.290866 1.705964 -0.443383
2010-06-22 07:21:21 51°11.452 2°44.974 15.5834 0.511248 3.104184 0.462042
2010-06-22 07:21:27 51°11.445 2°44.944 15.5211 1.57126 10.421527 1.611236
2010-06-22 07:21:32 51°11.439 2°44.919 15.5004 1.57126 10.421527 1.611236
2010-06-22 07:21:37 51°11.435 2°44.893 15.4449 2.577117 18.139598 1.680884
2010-06-22 07:21:41 51°11.43 2°44.874 15.442 2.704495 19.551728 1.959476
2010-06-22 07:21:47 51°11.423 2°44.843 15.4275 3.505315 26.429012 2.203245
2010-06-22 07:21:52 51°11.418 2°44.818 15.4195 3.767035 28.921701 2.238069
2010-06-22 07:21:57 51°11.412 2°44.793 15.4113 3.833696 29.780021 2.342541
2010-06-22 07:22:01 51°11.409 2°44.772 15.3876 3.833696 29.780021 2.342541
2010-06-22 07:22:07 51°11.401 2°44.743 15.3821 3.840977 30.011328 2.342541
2010-06-22 07:22:12 51°11.396 2°44.717 15.3825 3.848362 30.189008 2.377365
2010-06-22 07:22:17 51°11.391 2°44.692 15.3848 3.846992 30.252632 2.377365
2010-06-22 07:22:21 51°11.386 2°44.672 15.3765 3.844883 30.297542 2.377365
2010-06-22 07:22:27 51°11.379 2°44.642 15.3903 3.843196 30.31997 2.342541
2010-06-22 07:22:32 51°11.374 2°44.617 15.3876 3.843196 30.31997 2.342541
2010-06-22 07:22:37 51°11.368 2°44.593 15.3908 3.842986 30.357738 2.377365
2010-06-22 07:22:42 51°11.363 2°44.567 15.3947 3.838768 30.345956 2.377365
2010-06-22 07:22:47 51°11.357 2°44.543 15.4069 3.834865 30.328889 2.342541
2010-06-22 07:22:52 51°11.352 2°44.518 15.3987 3.838979 30.380646 2.342541
2010-06-22 07:22:57 51°11.346 2°44.493 15.4221 3.839507 30.395676 2.307717
2010-06-22 07:23:01 51°11.342 2°44.473 15.4081 3.839507 30.395676 2.307717
2010-06-22 07:23:07 51°11.336 2°44.443 15.4071 3.836448 30.371622 2.412189
2010-06-22 07:23:12 51°11.331 2°44.418 15.4 3.835921 30.372747 2.377365
2010-06-22 07:23:17 51°11.325 2°44.393 15.407 3.835499 30.373647 2.342541
2010-06-22 07:23:21 51°11.321 2°44.373 15.4067 3.829276 30.317679 2.377365
2010-06-22 07:23:27 51°11.314 2°44.343 15.4155 3.833178 30.351475 2.307717
2010-06-22 07:23:32 51°11.309 2°44.319 15.3999 3.833178 30.351475 2.307717
2010-06-22 07:23:37 51°11.304 2°44.294 15.4132 3.832335 30.343466 2.377365
2010-06-22 07:23:41 51°11.299 2°44.274 15.4146 3.835288 30.370057 2.342541
2010-06-22 07:23:47 51°11.292 2°44.245 15.4009 3.83919 30.404438 2.342541
2010-06-22 07:23:52 51°11.287 2°44.22 15.3941 3.839718 30.410818 2.377365
2010-06-22 07:23:57 51°11.282 2°44.196 15.4004 3.837081 30.389318 2.377365
2010-06-22 07:24:01 51°11.277 2°44.176 15.3851 3.837081 30.389318 2.377365
2010-06-22 07:24:07 51°11.272 2°44.146 15.3916 3.842355 30.435789 2.342541
2010-06-22 07:24:12 51°11.265 2°44.122 15.3921 3.840983 30.426018 2.342541
2010-06-22 07:24:17 51°11.261 2°44.097 15.3715 3.839718 30.416598 2.342541
2010-06-22 07:24:21 51°11.256 2°44.078 15.3772 3.839085 30.411021 2.377365
2010-06-22 07:24:27 51°11.25 2°44.048 15.3828 3.837397 30.400193 2.342541
2010-06-22 07:24:32 51°11.244 2°44.024 15.3889 3.837397 30.400193 2.342541
2010-06-22 07:24:37 51°11.239 2°43.999 15.382 3.836765 30.397505 2.377365
2010-06-22 07:24:42 51°11.234 2°43.974 15.3893 3.836237 30.398058 2.377365
2010-06-22 07:24:47 51°11.229 2°43.95 15.3802 3.835183 30.392806 2.377365
2010-06-22 07:24:52 51°11.224 2°43.926 15.4062 3.835921 30.401627 2.412189
2010-06-22 07:24:57 51°11.219 2°43.901 15.3726 3.829487 30.346061 2.342541
2010-06-22 07:25:01 51°11.214 2°43.881 15.3976 3.829487 30.346061 2.342541
2010-06-22 07:25:07 51°11.208 2°43.852 15.3728 3.824741 30.307685 2.412189
2010-06-22 07:25:12 51°11.202 2°43.828 15.3894 3.831597 30.3687 2.377365
2010-06-22 07:25:17 51°11.197 2°43.803 15.381 3.81894 30.258861 2.377365
2010-06-22 07:25:22 51°11.192 2°43.779 15.3898 3.82896 30.347761 2.447013
2010-06-22 07:25:27 51°11.187 2°43.755 15.3838 3.833073 30.385188 2.377365
2010-06-22 07:25:32 51°11.181 2°43.731 15.3929 3.833073 30.385188 2.377365
2010-06-22 07:25:37 51°11.175 2°43.706 15.4027 3.835288 30.403565 2.412189
2010-06-22 07:25:41 51°11.171 2°43.687 15.4182 3.832441 30.380763 2.412189
2010-06-22 07:25:47 51°11.164 2°43.658 15.4275 3.832757 30.383554 2.377365
2010-06-22 07:25:52 51°11.158 2°43.634 15.4373 3.830437 30.363669 2.377365
2010-06-22 07:25:57 51°11.153 2°43.609 15.4268 3.826851 30.332626 2.377365
2010-06-22 07:26:01 51°11.149 2°43.59 15.4254 3.826851 30.332626 2.377365
2010-06-22 07:26:07 51°11.142 2°43.561 15.4144 3.82569 30.32182 2.342541
2010-06-22 07:26:12 51°11.136 2°43.536 15.4075 3.827272 30.335191 2.307717
2010-06-22 07:26:17 51°11.131 2°43.512 15.4118 3.831702 30.370208 2.238069
2010-06-22 07:26:21 51°11.128 2°43.492 15.4075 3.83898 30.427441 2.272893
2010-06-22 07:26:27 51°11.122 2°43.463 15.399 3.841195 30.438869 2.238069
2010-06-22 07:26:32 51°11.118 2°43.437 15.3802 3.841195 30.438869 2.238069
2010-06-22 07:26:37 51°11.113 2°43.413 15.3699 3.8413 30.436326 2.272893
2010-06-22 07:26:42 51°11.11 2°43.388 15.3626 3.840984 30.434116 2.307717
2010-06-22 07:26:47 51°11.106 2°43.363 15.3683 3.841406 30.436678 2.342541
2010-06-22 07:26:52 51°11.102 2°43.338 15.3662 3.841089 30.43736 2.342541
2010-06-22 07:26:57 51°11.098 2°43.313 15.3603 3.840562 30.436183 2.377365
2010-06-22 07:27:01 51°11.095 2°43.293 15.3593 3.840562 30.436183 2.377365
2010-06-22 07:27:07 51°11.091 2°43.263 15.3538 3.839824 30.43546 2.447013
2010-06-22 07:27:12 51°11.088 2°43.238 15.3719 3.839507 30.439617 2.412189
2010-06-22 07:27:17 51°11.085 2°43.212 15.3442 3.838875 30.440985 2.481837
2010-06-22 07:27:22 51°11.083 2°43.187 15.3529 3.838558 30.446305 2.481837
2010-06-22 07:27:27 51°11.08 2°43.161 15.3458 3.837504 30.441054 2.412189
2010-06-22 07:27:32 51°11.078 2°43.136 15.3419 3.837504 30.441054 2.412189
2010-06-22 07:27:37 51°11.076 2°43.11 15.3409 3.836554 30.436733 2.481837
2010-06-22 07:27:41 51°11.074 2°43.089 15.3371 3.836238 30.436838 2.447013
2010-06-22 07:27:47 51°11.072 2°43.058 15.3492 3.834972 30.427404 2.481837
2010-06-22 07:27:52 51°11.069 2°43.033 15.3469 3.835816 30.434273 2.447013
2010-06-22 07:27:57 51°11.067 2°43.007 15.3446 3.835183 30.431585 2.516661
2010-06-22 07:28:01 51°11.065 2°42.987 15.3448 3.835183 30.431585 2.516661
2010-06-22 07:28:07 51°11.063 2°42.956 15.3436 3.835183 30.435642 2.481837
2010-06-22 07:28:12 51°11.06 2°42.93 15.3499 3.834551 30.433534 2.481837
2010-06-22 07:28:17 51°11.058 2°42.904 15.3484 3.834656 30.436205 2.516661
2010-06-22 07:28:21 51°11.057 2°42.884 15.3548 3.834234 30.435959 2.516661
2010-06-22 07:28:27 51°11.056 2°42.853 15.3481 3.833918 30.433164 2.551485
2010-06-22 07:28:32 51°11.055 2°42.827 15.3613 3.833918 30.433164 2.551485
2010-06-22 07:28:37 51°11.056 2°42.801 15.3544 3.834234 30.435379 2.516661
2010-06-22 07:28:42 51°11.056 2°42.775 15.3647 3.833707 30.431301 2.516661
2010-06-22 07:28:47 51°11.058 2°42.749 15.3634 3.834023 30.434676 2.516661
2010-06-22 07:28:52 51°11.059 2°42.723 15.3543 3.833918 30.432584 2.516661
2010-06-22 07:28:57 51°11.061 2°42.697 15.3497 3.833918 30.430265 2.481837
2010-06-22 07:29:01 51°11.063 2°42.676 15.3566 3.833918 30.430265 2.481837
2010-06-22 07:29:07 51°11.066 2°42.647 15.3487 3.834656 30.435625 2.481837
2010-06-22 07:29:12 51°11.069 2°42.624 15.3633 3.834551 30.433534 2.447013
2010-06-22 07:29:17 51°11.071 2°42.602 15.3446 3.834129 30.429229 2.447013
2010-06-22 07:29:22 51°11.073 2°42.581 15.3479 3.834656 30.431566 2.412189
2010-06-22 07:29:27 51°11.075 2°42.56 15.3431 3.834656 30.432146 2.412189
2010-06-22 07:29:32 51°11.076 2°42.54 15.3347 3.834656 30.432146 2.412189
2010-06-22 07:29:37 51°11.077 2°42.521 15.3483 3.834762 30.433657 2.447013
2010-06-22 07:29:41 51°11.078 2°42.506 15.354 3.83434 30.431671 2.481837
2010-06-22 07:29:47 51°11.079 2°42.483 15.3528 3.834234 30.43074 2.516661
2010-06-22 07:29:52 51°11.079 2°42.464 15.359 3.834023 30.429457 2.516661
2010-06-22 07:29:57 51°11.079 2°42.446 15.3637 3.83339 30.427348 2.516661
2010-06-22 07:30:02 51°11.079 2°42.428 15.3627 3.83339 30.427348 2.516661
2010-06-22 07:30:07 51°11.079 2°42.41 15.3598 3.833074 30.425133 2.516661
2010-06-22 07:30:12 51°11.079 2°42.392 15.3602 3.833285 30.426996 2.481837
2010-06-22 07:30:17 51°11.078 2°42.375 15.3596 3.833074 30.422814 2.412189
2010-06-22 07:30:21 51°11.078 2°42.361 15.3619 3.832441 30.414909 2.307717
2010-06-22 07:30:27 51°11.078 2°42.34 15.3595 3.832336 30.411081 2.238069
2010-06-22 07:30:32 51°11.078 2°42.324 15.3552 3.832336 30.411081 2.238069
2010-06-22 07:30:37 51°11.078 2°42.309 15.3567 3.832441 30.407378 2.307717
2010-06-22 07:30:41 51°11.078 2°42.297 15.3574 3.832757 30.407275 2.307717
2010-06-22 07:30:47 51°11.078 2°42.28 15.3549 3.833179 30.41042 2.342541
2010-06-22 07:30:52 51°11.079 2°42.267 15.3543 3.833601 30.413564 2.272893
2010-06-22 07:30:57 51°11.079 2°42.254 15.3527 3.833707 30.415654 2.272893
2010-06-22 07:31:01 51°11.08 2°42.244 15.3522 3.833707 30.415654 2.272893
2010-06-22 07:31:07 51°11.081 2°42.23 15.3535 3.833918 30.416936 2.307717
2010-06-22 07:31:12 51°11.083 2°42.219 15.3595 3.834023 30.418446 2.307717
2010-06-22 07:31:17 51°11.085 2°42.208 15.355 3.83455 30.42426 2.307717
2010-06-22 07:31:22 51°11.087 2°42.198 15.3544 3.834972 30.428563 2.342541
2010-06-22 07:31:27 51°11.089 2°42.188 15.358 3.835078 30.430074 2.272893
2010-06-22 07:31:32 51°11.091 2°42.179 15.3574 3.835078 30.430074 2.272893
2010-06-22 07:31:37 51°11.094 2°42.17 15.358 3.835183 30.433324 2.307717
2010-06-22 07:31:41 51°11.096 2°42.163 15.3576 3.835289 30.434255 2.307717
2010-06-22 07:31:47 51°11.099 2°42.152 15.3559 3.835711 30.437979 2.238069
2010-06-22 07:31:52 51°11.101 2°42.144 15.3571 3.835711 30.43682 2.272893
2010-06-22 07:31:57 51°11.103 2°42.136 15.356 3.836027 30.439613 2.168421
2010-06-22 07:32:02 51°11.106 2°42.128 15.3645 3.836027 30.439613 2.168421
2010-06-22 07:32:07 51°11.108 2°42.12 15.3669 3.836449 30.443918 2.168421
2010-06-22 07:32:12 51°11.11 2°42.113 15.3668 3.83666 30.44578 2.133597
2010-06-22 07:32:17 51°11.112 2°42.106 15.374 3.837082 30.448925 2.168421
2010-06-22 07:32:21 51°11.114 2°42.101 15.379 3.83666 30.4452 2.238069
2010-06-22 07:32:27 51°11.116 2°42.094 15.3896 3.836344 30.441247 2.203245
2010-06-22 07:32:32 51°11.118 2°42.089 15.3999 3.836344 30.441247 2.203245
2010-06-22 07:32:37 51°11.119 2°42.084 15.4049 3.836976 30.447994 2.203245
2010-06-22 07:32:41 51°11.12 2°42.081 15.4095 3.837082 30.449505 2.238069
2010-06-22 07:32:47 51°11.122 2°42.076 15.4077 3.837609 30.451841 2.168421
2010-06-22 07:32:52 51°11.124 2°42.074 15.4067 3.837715 30.449872 2.168421
2010-06-22 07:32:57 51°11.125 2°42.071 15.4118 3.837926 30.449415 2.063949
2010-06-22 07:33:01 51°11.127 2°42.07 15.418 3.837926 30.449415 2.063949
2010-06-22 07:33:07 51°11.129 2°42.069 15.4299 3.838136 30.446639 1.959476
2010-06-22 07:33:12 51°11.131 2°42.068 15.4324 3.838347 30.442705 1.855004
2010-06-22 07:33:17 51°11.132 2°42.068 15.4358 3.838875 30.440985 1.785356
2010-06-22 07:33:22 51°11.134 2°42.069 15.4326 3.839613 30.442285 1.82018
2010-06-22 07:33:27 51°11.135 2°42.069 15.4285 3.840457 30.446253 1.82018
2010-06-22 07:33:32 51°11.137 2°42.071 15.4262 3.840457 30.446253 1.82018
2010-06-22 07:33:37 51°11.138 2°42.072 15.4226 3.841511 30.453239 1.715708
2010-06-22 07:33:41 51°11.139 2°42.073 15.4287 3.842566 30.460224 1.611236
2010-06-22 07:33:47 51°11.141 2°42.075 15.4281 3.843199 30.460591 1.611236
2010-06-22 07:33:52 51°11.143 2°42.077 15.4281 3.844253 30.46352 1.506764
2010-06-22 07:33:57 51°11.144 2°42.079 15.434 3.844992 30.467134 1.506764
2010-06-22 07:34:02 51°11.145 2°42.081 15.4272 3.844992 30.467134 1.506764
2010-06-22 07:34:07 51°11.147 2°42.083 15.4232 3.845835 30.472835 1.541588
2010-06-22 07:34:12 51°11.148 2°42.085 15.4304 3.84689 30.483293 1.541588
2010-06-22 07:34:17 51°11.149 2°42.087 15.4371 3.847312 30.488172 1.576412
2010-06-22 07:34:21 51°11.15 2°42.089 15.4324 3.847523 30.490032 1.576412
2010-06-22 07:34:27 51°11.152 2°42.091 15.4309 3.847629 30.490962 1.541588
2010-06-22 07:34:32 51°11.153 2°42.094 15.4378 3.847629 30.490962 1.541588
2010-06-22 07:34:37 51°11.155 2°42.096 15.4515 3.848367 30.496313 1.506764
2010-06-22 07:34:42 51°11.156 2°42.098 15.4545 3.848156 30.494453 1.611236
2010-06-22 07:34:47 51°11.157 2°42.101 15.4547 3.848367 30.496892 1.611236
2010-06-22 07:34:52 51°11.158 2°42.103 15.4591 3.848472 30.498402 1.611236
2010-06-22 07:34:57 51°11.16 2°42.105 15.4593 3.849 30.501893 1.576412
2010-06-22 07:35:01 51°11.161 2°42.107 15.4581 3.849 30.501893 1.576412
2010-06-22 07:35:07 51°11.162 2°42.11 15.4541 3.849211 30.501433 1.541588
2010-06-22 07:35:12 51°11.164 2°42.113 15.4568 3.849527 30.503064 1.47194
2010-06-22 07:35:17 51°11.165 2°42.115 15.4533 3.849843 30.502375 1.47194
2010-06-22 07:35:21 51°11.166 2°42.117 15.4538 3.850582 30.503667 1.541588
2010-06-22 07:35:27 51°11.167 2°42.12 15.4508 3.851003 30.504488 1.47194
2010-06-22 07:35:32 51°11.169 2°42.123 15.4503 3.851003 30.504488 1.47194
2010-06-22 07:35:37 51°11.17 2°42.126 15.4467 3.85132 30.504379 1.506764
2010-06-22 07:35:41 51°11.171 2°42.128 15.4461 3.851742 30.506359 1.506764
2010-06-22 07:35:47 51°11.173 2°42.131 15.4457 3.852164 30.510077 1.437116
2010-06-22 07:35:52 51°11.174 2°42.134 15.4467 3.852164 30.510077 1.506764
2010-06-22 07:35:57 51°11.175 2°42.136 15.4442 3.852058 30.509727 1.47194
2010-06-22 07:36:02 51°11.176 2°42.139 15.4426 3.852058 30.509727 1.47194
2010-06-22 07:36:07 51°11.178 2°42.141 15.4438 3.85248 30.514604 1.437116
2010-06-22 07:36:12 51°11.179 2°42.144 15.446 3.852269 30.514484 1.506764
2010-06-22 07:36:17 51°11.18 2°42.147 15.4482 3.852164 30.514714 1.506764
2010-06-22 07:36:21 51°11.181 2°42.149 15.4488 3.852269 30.515644 1.506764
2010-06-22 07:36:27 51°11.182 2°42.152 15.4519 3.851847 30.513664 1.541588